Mount VernonWeather Station
Hourly Leaf Wetness Data

Source: University of Missouri

To the bottom of the page

Year Month Day Hour Leaf Wetness Total
Precipitation
Avg. Temp Avg. Rel.
Humidity
Wind
Speed
CST mV in mm F C % mph
2017 08 12 1:00 Wet 298.5 0.0 0.00 67.0 19.5 97.3 0.0
2017 08 12 2:00 Wet 316.4 0.0 0.00 65.8 18.8 98.5 0.6
2017 08 12 3:00 Wet 340.9 0.0 0.00 64.9 18.3 99.9 0.0
2017 08 12 4:00 Wet 361.0 0.0 0.00 63.4 17.4 99.9 1.4
2017 08 12 5:00 Wet 370.1 0.0 0.00 63.9 17.7 99.9 0.2
2017 08 12 6:00 Wet 393.9 0.0 0.00 63.0 17.2 99.8 0.0
2017 08 12 7:00 Wet 345.2 0.0 0.00 63.7 17.6 99.8 0.3
2017 08 12 8:00 264.8 0.0 0.00 68.4 20.2 90.5 4.3
2017 08 12 9:00 263.1 0.0 0.00 71.5 21.9 78.93 8.0
2017 08 12 10:00 263.0 0.0 0.00 73.4 23.0 73.08 7.1
2017 08 12 11:00 262.3 0.0 0.00 74.4 23.5 71.53 5.4
2017 08 12 12:00 262.1 0.0 0.00 75.3 24.0 71.31 4.0
2017 08 12 13:00 262.2 0.0 0.00 75.7 24.3 71.15 4.6
2017 08 12 14:00 262.3 0.0 0.00 75.4 24.1 70.38 5.4
2017 08 12 15:00 262.3 0.0 0.00 74.3 23.5 67.34 5.6
2017 08 12 16:00 262.6 0.0 0.00 73.5 23.1 67.29 5.7
2017 08 12 17:00 263.0 0.0 0.00 72.9 22.7 72.68 4.1
2017 08 12 18:00 263.7 0.0 0.00 71.5 22.0 74.54 4.8
2017 08 12 19:00 264.1 0.0 0.00 70.4 21.3 77.07 3.7
2017 08 12 20:00 264.9 0.0 0.00 68.7 20.4 81.5 2.0
2017 08 12 21:00 265.6 0.0 0.00 67.3 19.6 86.2 2.0
2017 08 12 22:00 266.9 0.0 0.00 66.2 19.0 87.8 1.3
2017 08 12 23:00 265.3 0.0 0.00 66.4 19.1 83.9 3.7
2017 08 12 24:00 265.1 0.0 0.00 66.8 19.3 81.4 3.9
2017 08 13 1:00 265.1 0.0 0.00 66.3 19.1 83.4 3.7
2017 08 13 2:00 Wet 287.5 0.0 0.25 65.2 18.5 88.2 6.5
2017 08 13 3:00 Wet 322.2 0.0 0.51 63.4 17.5 99.7 6.7
2017 08 13 4:00 Wet 336.5 0.1 3.05 63.5 17.5 98.6 5.5
2017 08 13 5:00 Wet 299.8 0.0 0.25 63.8 17.7 97.9 4.8
2017 08 13 6:00 Wet 334.7 0.0 0.51 63.5 17.5 99.2 5.7
2017 08 13 7:00 Wet 307.1 0.0 0.25 63.7 17.6 99.4 4.8
2017 08 13 8:00 271.8 0.0 0.00 64.8 18.2 98 5.8
2017 08 13 9:00 264.5 0.0 0.00 67.2 19.6 89.3 8.5
2017 08 13 10:00 264.8 0.0 0.00 67.3 19.6 86.7 8.8
2017 08 13 11:00 264.4 0.0 0.00 67.7 19.8 87.1 8.9
2017 08 13 12:00 264.0 0.0 0.00 68.9 20.5 85.1 9.1
2017 08 13 13:00 264.0 0.0 0.00 68.8 20.4 83.1 8.9
2017 08 13 14:00 Wet 294.8 0.0 0.00 69.0 20.5 86.2 7.0
2017 08 13 15:00 Wet 290.3 0.0 0.00 68.1 20.0 98.3 5.4
2017 08 13 16:00 268.6 0.0 0.00 68.0 20.0 96.4 6.0
2017 08 13 17:00 Wet 295.2 0.0 0.00 67.3 19.6 97.8 4.5
2017 08 13 18:00 Wet 305.4 0.0 0.00 66.4 19.1 99 4.6
2017 08 13 19:00 Wet 378.4 0.0 0.25 65.5 18.6 99.9 4.2
2017 08 13 20:00 Wet 357.7 0.0 0.00 65.2 18.4 99.9 4.2
2017 08 13 21:00 Wet 312.0 0.0 0.00 65.1 18.4 99.9 4.7
2017 08 13 22:00 Wet 285.9 0.0 0.00 65.6 18.7 99.9 3.9
2017 08 13 23:00 273.1 0.0 0.00 65.9 18.8 99.9 2.7
2017 08 13 24:00 277.6 0.0 0.00 66.1 19.0 99.9 1.8
2017 08 14 1:00 277.7 0.0 0.00 66.4 19.1 99.9 1.3
2017 08 14 2:00 277.4 0.0 0.00 67.0 19.4 99.9 2.6
2017 08 14 3:00 272.4 0.0 0.00 67.4 19.7 99.9 0.4
2017 08 14 4:00 274.3 0.0 0.00 67.5 19.7 99.9 0.2
2017 08 14 5:00 275.3 0.0 0.00 67.5 19.7 99.9 0.9
2017 08 14 6:00 274.0 0.0 0.00 67.4 19.7 99.9 0.4
2017 08 14 7:00 268.0 0.0 0.00 67.9 19.9 99.9 0.4
2017 08 14 8:00 265.7 0.0 0.00 69.0 20.5 96.5 1.1
2017 08 14 9:00 264.5 0.0 0.00 70.3 21.3 85.8 1.1
2017 08 14 10:00 264.0 0.0 0.00 71.5 21.9 82.4 0.6
2017 08 14 11:00 263.6 0.0 0.00 72.3 22.4 81.7 3.4
2017 08 14 12:00 263.0 0.0 0.00 74.7 23.7 77.76 4.1
2017 08 14 13:00 262.9 0.0 0.00 75.7 24.3 76.87 4.7
2017 08 14 14:00 262.6 0.0 0.00 76.9 24.9 74.08 4.0
2017 08 14 15:00 261.9 0.0 0.00 78.5 25.8 69.22 5.1
2017 08 14 16:00 261.6 0.0 0.00 78.8 26.0 69.37 3.5
2017 08 14 17:00 260.6 0.0 0.00 80.0 26.7 67.34 3.6
2017 08 14 18:00 261.3 0.0 0.00 79.6 26.4 69.29 3.1
2017 08 14 19:00 262.7 0.0 0.00 77.8 25.4 76.2 1.2
2017 08 14 20:00 268.6 0.0 0.00 74.0 23.4 86.5 0.8
2017 08 14 21:00 266.5 0.0 0.00 72.0 22.2 88.7 3.5
2017 08 14 22:00 273.3 0.0 0.00 70.0 21.1 94.2 1.3
2017 08 14 23:00 Wet 323.6 0.0 0.00 67.9 19.9 99.8 0.4
2017 08 14 24:00 Wet 386.0 0.0 0.00 67.2 19.5 99.9 0.3
2017 08 15 1:00 Wet 399.6 0.0 0.00 66.4 19.1 99.9 1.1
2017 08 15 2:00 Wet 395.0 0.0 0.00 66.3 19.0 99.9 1.4
2017 08 15 3:00 Wet 380.3 0.0 0.00 65.3 18.5 99.9 0.5
2017 08 15 4:00 Wet 368.2 0.0 0.00 64.9 18.3 99.9 2.5
2017 08 15 5:00 Wet 367.4 0.0 0.00 64.8 18.3 99.9 1.0
2017 08 15 6:00 Wet 362.9 0.0 0.00 64.2 17.9 99.9 1.4
2017 08 15 7:00 Wet 291.9 0.0 0.00 67.2 19.5 99.9 1.7
2017 08 15 8:00 263.5 0.0 0.00 71.1 21.7 93 2.0
2017 08 15 9:00 262.7 0.0 0.00 74.6 23.6 83.5 4.3
2017 08 15 10:00 263.1 0.0 0.00 76.6 24.8 80.3 5.8
2017 08 15 11:00 262.9 0.0 0.00 77.4 25.2 79.94 7.1
2017 08 15 12:00 262.6 0.0 0.00 78.7 25.9 77.16 5.3
2017 08 15 13:00 261.7 0.0 0.00 80.9 27.2 70.96 2.9
2017 08 15 14:00 261.1 0.0 0.00 82.4 28.0 67.73 3.4
2017 08 15 15:00 260.6 0.0 0.00 82.8 28.2 67.24 3.1
2017 08 15 16:00 259.8 0.0 0.00 83.7 28.7 65.03 3.5
2017 08 15 17:00 260.9 0.0 0.00 83.2 28.4 66.07 3.4
2017 08 15 18:00 262.4 0.0 0.00 81.1 27.3 73.53 2.2
2017 08 15 19:00 263.9 0.0 0.00 78.7 25.9 81.4 0.9
2017 08 15 20:00 265.0 0.0 0.00 76.5 24.7 87.3 2.8
2017 08 15 21:00 264.7 0.0 0.00 76.6 24.8 84.9 4.5
2017 08 15 22:00 265.2 0.0 0.00 76.1 24.5 88.1 4.4
2017 08 15 23:00 Wet 295.2 0.3 6.60 75.0 23.9 96.2 5.8
2017 08 15 24:00 Wet 348.2 0.2 5.08 69.1 20.6 99.1 3.5
2017 08 16 1:00 Wet 292.1 0.0 0.00 71.1 21.7 99.9 2.7
2017 08 16 2:00 270.3 0.0 0.00 72.0 22.2 90.3 3.5
2017 08 16 3:00 265.8 0.0 0.00 71.1 21.7 91.6 4.0
2017 08 16 4:00 265.8 0.0 0.00 70.8 21.5 88.1 5.7
2017 08 16 5:00 265.8 0.0 0.00 70.8 21.6 87.4 4.8
2017 08 16 6:00 265.8 0.0 0.00 70.8 21.6 90.5 5.7
2017 08 16 7:00 265.8 0.0 0.00 71.7 22.1 92.8 6.5
2017 08 16 8:00 264.1 0.0 0.00 74.9 23.8 85.9 7.3
2017 08 16 9:00 263.3 0.0 0.51 78.6 25.9 79.55 9.8
2017 08 16 10:00 263.0 0.0 0.00 82.1 27.8 72.73 13.2
2017 08 16 11:00 262.6 0.0 0.00 83.0 28.4 69.45 12.6
2017 08 16 12:00 262.1 0.0 0.00 84.6 29.2 66.14 12.6
2017 08 16 13:00 262.6 0.0 0.00 81.0 27.2 70.61 9.6
2017 08 16 14:00 263.6 0.0 0.00 75.3 24.1 83.4 6.1
2017 08 16 15:00 Wet 316.8 0.2 5.59 74.3 23.5 96.7 4.0
2017 08 16 16:00 262.8 0.0 0.00 79.4 26.4 82 7.7
2017 08 16 17:00 261.6 0.0 0.00 81.1 27.3 72.29 10.1
2017 08 16 18:00 261.8 0.0 0.00 80.6 27.0 70.19 9.3
2017 08 16 19:00 263.0 0.0 0.00 78.5 25.8 76.4 6.3
2017 08 16 20:00 264.8 0.0 0.00 76.2 24.5 84.4 2.5
2017 08 16 21:00 268.8 0.0 0.25 71.9 22.1 86.5 8.1
2017 08 16 22:00 Wet 405.2 1.0 25.15 66.2 19.0 99.8 10.5
2017 08 16 23:00 Wet 336.5 0.0 1.02 65.7 18.7 99.9 6.2
2017 08 16 24:00 Wet 292.8 0.0 0.51 65.3 18.5 99.4 7.0
2017 08 17 1:00 Wet 295.9 0.0 1.02 65.8 18.8 97.7 7.3
2017 08 17 2:00 Wet 293.1 0.0 0.25 65.9 18.9 98.8 5.4
2017 08 17 3:00 276.8 0.0 0.00 66.2 19.0 98.6 3.7
2017 08 17 4:00 271.0 0.0 0.00 66.2 19.0 99.5 3.4
2017 08 17 5:00 272.5 0.0 0.00 65.9 18.8 99.9 2.6
2017 08 17 6:00 Wet 284.2 0.0 0.00 65.6 18.7 99.9 1.4
2017 08 17 7:00 269.0 0.0 0.00 67.4 19.6 99.9 4.7
2017 08 17 8:00 265.9 0.0 0.00 69.4 20.8 99.3 8.0
2017 08 17 9:00 265.2 0.0 0.00 70.6 21.4 95.4 6.9
2017 08 17 10:00 264.0 0.0 0.00 72.6 22.6 86.2 5.0
2017 08 17 11:00 263.0 0.0 0.00 75.8 24.3 78.3 5.4
2017 08 17 12:00 262.7 0.0 0.00 77.3 25.2 73.89 6.7
2017 08 17 13:00 262.4 0.0 0.00 78.7 26.0 71.67 7.1
2017 08 17 14:00 261.9 0.0 0.00 80.8 27.1 66.33 8.9
2017 08 17 15:00 261.5 0.0 0.00 81.4 27.5 63.41 8.9
2017 08 17 16:00 260.5 0.0 0.00 82.0 27.8 59.26 9.6
2017 08 17 17:00 260.2 0.0 0.00 81.4 27.4 58.26 8.2
2017 08 17 18:00 260.2 0.0 0.00 80.2 26.8 59.36 6.6
2017 08 17 19:00 261.3 0.0 0.00 77.1 25.1 62.55 3.7
2017 08 17 20:00 266.7 0.0 0.00 71.5 21.9 74.83 2.3
2017 08 17 21:00 Wet 285.4 0.0 0.00 67.2 19.6 85.9 0.9
2017 08 17 22:00 Wet 323.1 0.0 0.00 65.6 18.7 92.2 0.2
2017 08 17 23:00 Wet 373.4 0.0 0.00 63.4 17.5 98.6 0.4
2017 08 17 24:00 Wet 416.6 0.0 0.00 62.5 16.9 99.8 0.4
2017 08 18 1:00 Wet 398.8 0.0 0.00 61.0 16.1 99.8 0.4
2017 08 18 2:00 Wet 385.2 0.0 0.00 60.1 15.6 99.6 1.5
2017 08 18 3:00 Wet 389.5 0.0 0.00 59.8 15.4 99.8 0.3
2017 08 18 4:00 Wet 378.6 0.0 0.00 58.7 14.9 99.9 0.6
2017 08 18 5:00 Wet 372.3 0.0 0.00 58.1 14.5 99.9 0.4
2017 08 18 6:00 Wet 359.3 0.0 0.00 58.1 14.5 99.9 0.1
2017 08 18 7:00 Wet 287.5 0.0 0.00 61.0 16.1 97.9 0.8
2017 08 18 8:00 264.9 0.0 0.00 67.9 20.0 95.5 4.8
2017 08 18 9:00 266.4 0.0 0.00 71.0 21.7 99.9 4.6
2017 08 18 10:00 264.5 0.0 0.00 75.3 24.1 91.4 8.2
2017 08 18 11:00 263.7 0.0 0.00 77.2 25.1 86.4 6.3
2017 08 18 12:00 263.0 0.0 0.00 78.6 25.9 80.9 5.8
2017 08 18 13:00 262.7 0.0 0.00 80.9 27.2 74.96 6.5
2017 08 18 14:00 262.3 0.0 0.00 82.0 27.8 71.44 6.1
2017 08 18 15:00 261.2 0.0 0.00 84.6 29.2 66.01 6.8
2017 08 18 16:00 260.9 0.0 0.00 81.8 27.6 59.83 6.4
2017 08 18 17:00 262.7 0.0 0.00 77.1 25.0 72.59 5.4
2017 08 18 18:00 263.0 0.0 0.00 74.4 23.5 79.76 9.2
2017 08 18 19:00 263.4 0.0 0.00 70.9 21.6 79.87 9.5
2017 08 18 20:00 265.8 0.0 0.00 68.0 20.0 86.1 2.6
2017 08 18 21:00 266.6 0.0 0.00 66.8 19.3 92.8 2.7
2017 08 18 22:00 267.2 0.0 0.00 67.0 19.4 91.8 1.5
2017 08 18 23:00 267.5 0.0 0.00 67.0 19.4 93.6 0.8
2017 08 18 24:00 268.7 0.0 0.00 67.1 19.5 93.9 0.8
2017 08 19 1:00 279.4 0.0 0.00 65.6 18.6 99.8 0.8
2017 08 19 2:00 Wet 288.0 0.0 0.00 65.1 18.4 99.9 0.7
2017 08 19 3:00 Wet 299.1 0.0 0.00 67.0 19.4 99.8 2.0
2017 08 19 4:00 281.8 0.0 0.00 69.2 20.7 99.8 2.7
2017 08 19 5:00 Wet 294.5 0.0 0.00 69.3 20.7 99.9 2.2
2017 08 19 6:00 279.8 0.0 0.00 70.7 21.5 99.8 5.4
2017 08 19 7:00 264.7 0.0 0.00 72.8 22.7 96.7 5.9
2017 08 19 8:00 262.9 0.0 0.00 76.3 24.6 85 8.0
2017 08 19 9:00 262.8 0.0 0.00 78.3 25.7 80.9 8.5
2017 08 19 10:00 262.9 0.0 0.00 81.4 27.4 74.44 8.6
2017 08 19 11:00 262.6 0.0 0.00 83.6 28.7 72.34 8.7
2017 08 19 12:00 262.3 0.0 0.00 84.1 28.9 72.51 7.3
2017 08 19 13:00 262.1 0.0 0.00 85.4 29.7 69.56 6.4
2017 08 19 14:00 261.2 0.0 0.00 87.7 31.0 65.36 4.0
2017 08 19 15:00 260.0 0.0 0.00 89.3 31.8 59.41 4.1
2017 08 19 16:00 258.8 0.0 0.00 90.4 32.4 53.42 4.4
2017 08 19 17:00 258.7 0.0 0.00 89.9 32.2 53.41 2.9
2017 08 19 18:00 260.9 0.0 0.00 86.9 30.5 61.53 1.6
2017 08 19 19:00 262.9 0.0 0.00 83.2 28.4 73.46 0.1
2017 08 19 20:00 264.8 0.0 0.00 79.4 26.4 83.4 1.1
2017 08 19 21:00 265.1 0.0 0.00 78.1 25.6 83.8 1.8
2017 08 19 22:00 264.6 0.0 0.00 78.3 25.7 80.4 3.2
2017 08 19 23:00 265.7 0.0 0.00 76.9 24.9 84.8 1.1
2017 08 19 24:00 268.9 0.0 0.00 75.7 24.3 90.1 0.9
2017 08 20 1:00 271.6 0.0 0.00 75.3 24.1 91.5 0.2
2017 08 20 2:00 267.9 0.0 0.00 75.4 24.1 85.7 2.8
2017 08 20 3:00 265.3 0.0 0.00 75.3 24.1 82.7 1.2
2017 08 20 4:00 266.2 0.0 0.00 73.6 23.1 90.9 1.1
2017 08 20 5:00 266.6 0.0 0.00 73.1 22.8 95.4 1.3
2017 08 20 6:00 266.3 0.0 0.00 74.6 23.7 87.8 2.0
2017 08 20 7:00 264.0 0.0 0.00 75.2 24.0 88 1.2
2017 08 20 8:00 262.0 0.0 0.00 79.8 26.6 78.32 5.8
2017 08 20 9:00 261.7 0.0 0.00 82.5 28.1 74.06 7.5
2017 08 20 10:00 262.2 0.0 0.00 84.7 29.3 69.11 8.9
2017 08 20 11:00 261.9 0.0 0.00 86.4 30.2 64.65 7.3
2017 08 20 12:00 261.3 0.0 0.00 88.0 31.1 60.81 5.1
2017 08 20 13:00 260.9 0.0 0.00 89.1 31.7 58.13 6.9
2017 08 20 14:00 260.3 0.0 0.00 89.9 32.2 55.74 8.4
2017 08 20 15:00 259.7 0.0 0.00 90.5 32.5 54.7 7.5
2017 08 20 16:00 259.4 0.0 0.00 90.3 32.4 54.66 6.5
2017 08 20 17:00 259.5 0.0 0.00 89.5 32.0 57.02 5.2
2017 08 20 18:00 259.9 0.0 0.00 88.4 31.3 60.88 3.0
2017 08 20 19:00 261.8 0.0 0.00 84.7 29.3 71.46 2.7
2017 08 20 20:00 262.9 0.0 0.00 75.0 23.9 75.26 11.5
2017 08 20 21:00 263.2 0.0 0.00 73.5 23.1 72.44 9.3
2017 08 20 22:00 263.2 0.0 0.00 72.1 22.3 74.38 5.1
2017 08 20 23:00 264.4 0.0 0.00 70.4 21.3 84.2 3.2
2017 08 20 24:00 264.7 0.0 0.00 70.9 21.6 84.2 3.3
2017 08 21 1:00 265.1 0.0 0.00 70.9 21.6 86.1 3.9
2017 08 21 2:00 265.6 0.0 0.00 71.6 22.0 87.2 3.2
2017 08 21 3:00 265.5 0.0 0.00 72.8 22.7 86.1 3.2
2017 08 21 4:00 266.8 0.0 0.00 72.2 22.4 88.1 2.7
2017 08 21 5:00 268.4 0.0 0.00 71.1 21.7 94.6 3.2
2017 08 21 6:00 269.1 0.0 0.00 70.8 21.6 98 1.7
2017 08 21 7:00 265.0 0.0 0.00 72.0 22.2 94.6 0.3
2017 08 21 8:00 262.2 0.0 0.00 78.1 25.6 78.75 2.7
2017 08 21 9:00 261.6 0.0 0.00 81.5 27.5 68.2 7.3
2017 08 21 10:00 262.2 0.0 0.00 82.9 28.3 66.73 7.8
2017 08 21 11:00 261.9 0.0 0.00 84.9 29.4 64.78 8.5
2017 08 21 12:00 261.9 0.0 0.00 84.9 29.4 64.85 7.6
2017 08 21 13:00 262.7 0.0 0.00 82.4 28.0 71.79 3.9
2017 08 21 14:00 261.5 0.0 0.00 86.0 30.0 64.36 7.9
2017 08 21 15:00 260.5 0.0 0.00 87.1 30.6 62.41 8.8
2017 08 21 16:00 260.2 0.0 0.00 87.1 30.6 61.46 8.8
2017 08 21 17:00 260.1 0.0 0.00 86.8 30.4 61.01 8.3
2017 08 21 18:00 260.3 0.0 0.00 85.9 30.0 63.55 5.4
2017 08 21 19:00 261.8 0.0 0.00 83.1 28.4 70.2 3.0
2017 08 21 20:00 263.6 0.0 0.00 79.5 26.4 78.57 4.2
2017 08 21 21:00 264.1 0.0 0.00 77.8 25.5 81.9 5.0
2017 08 21 22:00 264.3 0.0 0.00 77.6 25.3 81.9 5.6
2017 08 21 23:00 264.3 0.0 0.00 77.7 25.4 81.3 5.7
2017 08 21 24:00 264.3 0.0 0.00 77.2 25.1 83.2 7.9
2017 08 22 1:00 264.3 0.0 0.00 77.2 25.1 82.2 10.5
2017 08 22 2:00 264.3 0.0 0.00 76.7 24.9 81.1 9.9
2017 08 22 3:00 264.3 0.0 0.00 76.1 24.5 82.5 9.7
2017 08 22 4:00 264.3 0.0 0.00 75.3 24.1 83.3 9.5
2017 08 22 5:00 264.3 0.0 0.00 74.9 23.9 83.5 11.3
2017 08 22 6:00 Wet 321.2 0.3 7.62 72.3 22.4 85.7 13.1
2017 08 22 7:00 Wet 437.1 0.8 20.07 64.5 18.0 99.7 5.0
2017 08 22 8:00 Wet 369.1 0.2 3.81 64.7 18.2 99.9 7.4
2017 08 22 9:00 Wet 358.2 0.1 1.78 65.5 18.6 99.9 7.8
2017 08 22 10:00 Wet 295.6 0.0 0.51 65.8 18.8 99.9 2.8
2017 08 22 11:00 266.5 0.0 0.00 68.4 20.2 99.8 4.1
2017 08 22 12:00 263.5 0.0 0.00 74.4 23.6 84.7 4.0
2017 08 22 13:00 262.0 0.0 0.00 80.3 26.8 69.51 5.0
2017 08 22 14:00 261.4 0.0 0.00 82.0 27.8 63.61 6.5
2017 08 22 15:00 261.2 0.0 0.00 81.7 27.6 67.38 6.3
2017 08 22 16:00 261.2 0.0 0.00 81.5 27.5 68.89 6.3
2017 08 22 17:00 262.8 0.0 0.00 78.3 25.7 76.04 6.5
2017 08 22 18:00 263.6 0.0 0.00 76.5 24.7 82.2 4.5
2017 08 22 19:00 264.2 0.0 0.00 75.6 24.2 84.7 3.4
2017 08 22 20:00 264.6 0.0 0.00 74.3 23.5 85.8 2.0
2017 08 22 21:00 265.5 0.0 0.00 72.6 22.6 89 2.2
2017 08 22 22:00 266.1 0.0 0.00 71.0 21.6 94.1 2.8
2017 08 22 23:00 265.2 0.0 0.00 70.7 21.5 85.5 3.1
2017 08 22 24:00 265.2 0.0 0.00 68.5 20.3 85.3 3.1
2017 08 23 1:00 266.6 0.0 0.00 66.0 18.9 90.5 3.1
2017 08 23 2:00 266.6 0.0 0.00 64.8 18.2 88.9 2.4
2017 08 23 3:00 267.0 0.0 0.00 63.5 17.5 88.5 0.4
2017 08 23 4:00 266.8 0.0 0.00 62.6 17.0 85.9 0.6
2017 08 23 5:00 267.5 0.0 0.00 61.7 16.5 85.7 1.6
2017 08 23 6:00 268.9 0.0 0.00 60.1 15.6 88.6 1.9
2017 08 23 7:00 264.3 0.0 0.00 60.9 16.1 87.1 2.6
2017 08 23 8:00 263.1 0.0 0.00 63.8 17.6 77.56 4.1
2017 08 23 9:00 262.2 0.0 0.00 66.9 19.4 67.57 7.5
2017 08 23 10:00 262.6 0.0 0.00 70.1 21.1 61.49 7.2
2017 08 23 11:00 262.2 0.0 0.00 72.2 22.4 57 6.6
2017 08 23 12:00 261.6 0.0 0.00 73.8 23.2 53.74 5.4
2017 08 23 13:00 261.1 0.0 0.00 75.0 23.9 48.97 6.0
2017 08 23 14:00 260.0 0.0 0.00 75.9 24.4 45.62 5.9
2017 08 23 15:00 259.2 0.0 0.00 75.9 24.4 45.06 6.7
2017 08 23 16:00 258.5 0.0 0.00 76.3 24.6 43.67 5.7
2017 08 23 17:00 258.4 0.0 0.00 75.8 24.4 45.03 5.5
2017 08 23 18:00 258.6 0.0 0.00 75.1 23.9 50.22 3.7
2017 08 23 19:00 260.7 0.0 0.00 72.3 22.4 58.41 2.3
2017 08 23 20:00 263.1 0.0 0.00 67.1 19.5 69.92 0.6
2017 08 23 21:00 264.5 0.0 0.00 64.7 18.1 74.03 0.7
2017 08 23 22:00 264.7 0.0 0.00 63.4 17.5 74.08 0.9
2017 08 23 23:00 269.2 0.0 0.00 61.8 16.5 78.31 0.4
2017 08 23 24:00 277.4 0.0 0.00 59.6 15.3 84.5 0.8
2017 08 24 1:00 Wet 316.9 0.0 0.00 57.5 14.1 95.7 0.8
2017 08 24 2:00 Wet 374.5 0.0 0.00 56.5 13.6 98.7 0.0
2017 08 24 3:00 Wet 424.1 0.0 0.00 55.1 12.8 99.9 0.5
2017 08 24 4:00 Wet 400.0 0.0 0.00 54.9 12.7 99.9 0.2
2017 08 24 5:00 Wet 388.3 0.0 0.00 54.3 12.4 99.7 0.1
2017 08 24 6:00 Wet 385.3 0.0 0.00 53.3 11.9 99.9 0.6
2017 08 24 7:00 Wet 300.1 0.0 0.00 56.7 13.7 92.5 1.3
2017 08 24 8:00 263.6 0.0 0.00 62.9 17.1 80 2.9
2017 08 24 9:00 261.9 0.0 0.00 69.1 20.6 73.75 5.4
2017 08 24 10:00 262.4 0.0 0.00 72.6 22.6 66.87 6.7
2017 08 24 11:00 262.0 0.0 0.00 74.3 23.5 62.38 5.6
2017 08 24 12:00 261.4 0.0 0.00 75.5 24.1 56.57 5.0
2017 08 24 13:00 260.8 0.0 0.00 76.2 24.6 55.31 5.8
2017 08 24 14:00 260.1 0.0 0.00 76.6 24.8 54.59 7.2
2017 08 24 15:00 259.5 0.0 0.00 77.0 25.0 54.43 7.0
2017 08 24 16:00 258.7 0.0 0.00 77.6 25.3 53.53 6.2
2017 08 24 17:00 259.7 0.0 0.00 76.4 24.6 56.27 5.2
2017 08 24 18:00 261.0 0.0 0.00 74.4 23.6 62.84 3.6
2017 08 24 19:00 262.7 0.0 0.00 70.8 21.6 69.89 3.3
2017 08 24 20:00 263.9 0.0 0.00 68.0 20.0 75.44 2.7
2017 08 24 21:00 264.8 0.0 0.00 65.9 18.8 80.4 2.7
2017 08 24 22:00 266.7 0.0 0.00 64.2 17.9 85.5 1.9
2017 08 24 23:00 268.8 0.0 0.00 62.9 17.2 87.9 1.9
2017 08 24 24:00 269.6 0.0 0.00 62.4 16.9 89.6 1.3
2017 08 25 1:00 272.3 0.0 0.00 61.9 16.6 93 1.3
2017 08 25 2:00 272.4 0.0 0.00 61.2 16.2 97.3 1.7
2017 08 25 3:00 Wet 294.0 0.0 0.00 60.5 15.9 97.9 1.3
2017 08 25 4:00 Wet 342.1 0.0 0.00 59.4 15.2 99.9 0.2
2017 08 25 5:00 Wet 377.6 0.0 0.00 59.0 15.0 99.9 0.0
2017 08 25 6:00 Wet 414.8 0.0 0.00 58.4 14.7 99.9 0.2
2017 08 25 7:00 Wet 390.8 0.0 0.00 57.7 14.3 99.9 1.6
2017 08 25 8:00 Wet 290.4 0.0 0.00 62.5 17.0 90.7 5.3
2017 08 25 9:00 263.8 0.0 0.00 66.4 19.1 79.88 5.7
2017 08 25 10:00 262.8 0.0 0.00 71.1 21.7 67.07 8.7
2017 08 25 11:00 262.1 0.0 0.00 73.7 23.1 59.72 9.4
2017 08 25 12:00 261.6 0.0 0.00 74.8 23.8 57.95 9.4
2017 08 25 13:00 261.3 0.0 0.00 76.1 24.5 57.03 8.1
2017 08 25 14:00 260.0 0.0 0.00 77.3 25.2 54.23 7.8
2017 08 25 15:00 259.8 0.0 0.00 77.8 25.4 52.2 7.7
2017 08 25 16:00 260.1 0.0 0.00 77.3 25.1 54.38 6.8
2017 08 25 17:00 261.3 0.0 0.00 76.2 24.6 61.28 4.2
2017 08 25 18:00 262.3 0.0 0.00 74.7 23.7 69.28 1.7
2017 08 25 19:00 263.3 0.0 0.00 72.0 22.2 74.93 3.2
2017 08 25 20:00 264.3 0.0 0.00 69.6 20.9 78.67 3.0
2017 08 25 21:00 264.4 0.0 0.00 68.2 20.1 79.87 2.6
2017 08 25 22:00 264.5 0.0 0.00 67.4 19.7 80.2 3.3
2017 08 25 23:00 264.5 0.0 0.00 66.8 19.3 79.87 3.2
2017 08 25 24:00 264.8 0.0 0.00 66.3 19.1 80.9 0.2
2017 08 26 1:00 265.5 0.0 0.00 65.7 18.7 83.4 0.3
2017 08 26 2:00 267.1 0.0 0.00 65.0 18.4 86.3 0.7
2017 08 26 3:00 265.9 0.0 0.00 65.0 18.3 86 0.7
2017 08 26 4:00 266.9 0.0 0.00 64.2 17.9 89.5 0.6
2017 08 26 5:00 266.5 0.0 0.00 63.8 17.7 90.2 1.3
2017 08 26 6:00 266.4 0.0 0.00 63.4 17.4 90.6 2.9
2017 08 26 7:00 265.4 0.0 0.00 64.3 17.9 84.9 4.5
2017 08 26 8:00 264.8 0.0 0.00 65.7 18.7 82.7 3.8
2017 08 26 9:00 264.0 0.0 0.00 68.1 20.1 78.21 3.8
2017 08 26 10:00 262.8 0.0 0.00 71.0 21.7 71.57 4.9
2017 08 26 11:00 261.8 0.0 0.00 74.1 23.4 66.38 5.2
2017 08 26 12:00 261.7 0.0 0.00 75.6 24.2 64.47 4.2
2017 08 26 13:00 261.1 0.0 0.00 76.7 24.8 61.69 2.6
2017 08 26 14:00 260.7 0.0 0.00 77.3 25.2 58.73 2.7
2017 08 26 15:00 259.0 0.0 0.00 79.1 26.1 58.31 2.9
2017 08 26 16:00 260.2 0.0 0.00 78.3 25.7 57.9 2.4
2017 08 26 17:00 260.2 0.0 0.00 77.8 25.5 60.31 3.9
2017 08 26 18:00 259.8 0.0 0.00 77.3 25.2 61.14 2.8
2017 08 26 19:00 261.6 0.0 0.00 74.8 23.8 70.49 0.7
2017 08 26 20:00 266.3 0.0 0.00 71.0 21.6 81.2 0.0
2017 08 26 21:00 269.9 0.0 0.00 68.0 20.0 86.6 0.2
2017 08 26 22:00 Wet 290.7 0.0 0.00 66.3 19.1 95.4 0.0
2017 08 26 23:00 Wet 344.0 0.0 0.00 64.5 18.1 99.9 0.0
2017 08 26 24:00 Wet 387.8 0.0 0.00 63.8 17.6 99.9 0.0
2017 08 27 1:00 Wet 383.0 0.0 0.00 62.6 17.0 99.8 0.0
2017 08 27 2:00 Wet 384.3 0.0 0.00 61.8 16.6 99.8 0.0
2017 08 27 3:00 Wet 380.0 0.0 0.00 61.4 16.3 99.8 0.0
2017 08 27 4:00 Wet 380.1 0.0 0.00 60.6 15.9 99.9 0.0
2017 08 27 5:00 Wet 377.3 0.0 0.00 60.1 15.6 99.9 0.0
2017 08 27 6:00 Wet 371.5 0.0 0.00 59.8 15.4 99.9 0.0
2017 08 27 7:00 Wet 296.1 0.0 0.00 62.2 16.8 99 0.0
2017 08 27 8:00 262.1 0.0 0.00 68.1 20.1 86.3 0.2
2017 08 27 9:00 261.7 0.0 0.00 73.9 23.3 75.56 2.5
2017 08 27 10:00 262.3 0.0 0.00 76.9 24.9 66.44 4.7
2017 08 27 11:00 261.9 0.0 0.00 78.8 26.0 61.57 6.0
2017 08 27 12:00 261.5 0.0 0.00 80.0 26.7 61.04 6.4
2017 08 27 13:00 261.2 0.0 0.00 80.2 26.8 62.08 5.1
2017 08 27 14:00 259.9 0.0 0.00 82.3 27.9 58.15 3.0
2017 08 27 15:00 258.9 0.0 0.00 82.6 28.1 57.72 2.1
2017 08 27 16:00 260.8 0.0 0.00 81.4 27.5 60.84 3.0
2017 08 27 17:00 262.1 0.0 0.00 78.1 25.6 72.62 5.9
2017 08 27 18:00 262.7 0.0 0.00 75.4 24.1 75.82 7.0
2017 08 27 19:00 267.4 0.0 0.00 70.2 21.2 93.4 5.5
2017 08 27 20:00 266.2 0.0 0.00 69.6 20.9 97.8 5.0
2017 08 27 21:00 Wet 307.0 0.0 0.76 68.0 20.0 99.7 4.1
2017 08 27 22:00 Wet 290.9 0.0 0.00 67.8 19.9 99.9 2.1
2017 08 27 23:00 Wet 300.7 0.0 0.00 67.2 19.5 99.9 0.5
2017 08 27 24:00 Wet 327.0 0.0 0.00 66.1 18.9 99.9 0.3
2017 08 28 1:00 Wet 341.8 0.0 0.00 65.2 18.5 99.9 1.6
2017 08 28 2:00 Wet 333.6 0.0 0.00 65.0 18.3 99.9 3.6
2017 08 28 3:00 Wet 338.9 0.0 0.00 64.9 18.3 99.9 4.6
2017 08 28 4:00 Wet 346.0 0.0 0.00 64.7 18.1 99.9 4.1
2017 08 28 5:00 Wet 349.0 0.0 0.00 64.5 18.1 99.9 3.7
2017 08 28 6:00 Wet 342.8 0.0 0.25 64.6 18.1 99.9 2.7
2017 08 28 7:00 Wet 301.1 0.0 0.00 64.6 18.1 99.9 2.1
2017 08 28 8:00 273.0 0.0 0.00 64.7 18.1 99.9 4.1
2017 08 28 9:00 264.9 0.0 0.00 66.2 19.0 98.5 5.0
2017 08 28 10:00 264.3 0.0 0.00 67.6 19.8 89.1 5.7
2017 08 28 11:00 263.6 0.0 0.00 70.5 21.4 81.9 4.9
2017 08 28 12:00 262.7 0.0 0.00 73.8 23.2 73.35 4.2
2017 08 28 13:00 262.0 0.0 0.00 76.5 24.7 65.18 5.5
2017 08 28 14:00 261.1 0.0 0.00 78.3 25.7 58.22 5.9
2017 08 28 15:00 260.3 0.0 0.00 78.6 25.9 57.36 5.5
2017 08 28 16:00 259.6 0.0 0.00 79.2 26.2 55.99 5.5
2017 08 28 17:00 259.4 0.0 0.00 78.8 26.0 55.46 4.9
2017 08 28 18:00 259.7 0.0 0.00 77.8 25.4 56.67 3.7
2017 08 28 19:00 261.7 0.0 0.00 73.8 23.3 62.7 3.2
2017 08 28 20:00 263.2 0.0 0.00 70.2 21.2 73.8 4.1
2017 08 28 21:00 264.2 0.0 0.00 68.3 20.1 81.1 3.1
2017 08 28 22:00 265.6 0.0 0.00 67.0 19.4 82.9 1.4
2017 08 28 23:00 283.6 0.0 0.00 64.2 17.9 92.5 0.1
2017 08 28 24:00 Wet 313.5 0.0 0.00 62.9 17.2 98.3 0.0
2017 08 29 1:00 Wet 336.0 0.0 0.00 62.3 16.8 99.6 1.4
2017 08 29 2:00 Wet 336.7 0.0 0.00 62.3 16.8 96.4 0.8
2017 08 29 3:00 Wet 339.3 0.0 0.00 61.6 16.5 96.3 0.8
2017 08 29 4:00 Wet 354.1 0.0 0.00 60.9 16.0 98.3 0.0
2017 08 29 5:00 Wet 383.8 0.0 0.00 59.6 15.3 99.7 0.0
2017 08 29 6:00 Wet 391.2 0.0 0.00 59.1 15.1 99.9 0.4
2017 08 29 7:00 Wet 327.6 0.0 0.00 61.3 16.3 95.5 0.2
2017 08 29 8:00 270.1 0.0 0.00 65.1 18.4 85.2 5.2
2017 08 29 9:00 262.6 0.0 0.00 68.1 20.0 78.22 5.9
2017 08 29 10:00 263.1 0.0 0.00 71.3 21.8 67.03 7.0
2017 08 29 11:00 262.3 0.0 0.00 72.2 22.4 63.47 5.9
2017 08 29 12:00 261.7 0.0 0.00 73.3 23.0 60.48 5.2
2017 08 29 13:00 261.2 0.0 0.00 74.6 23.6 57.32 5.1
2017 08 29 14:00 260.3 0.0 0.00 75.7 24.3 56.45 4.9
2017 08 29 15:00 260.0 0.0 0.00 75.5 24.2 56.46 6.1
2017 08 29 16:00 260.4 0.0 0.00 75.1 24.0 56.02 5.5
2017 08 29 17:00 260.8 0.0 0.00 74.0 23.3 59.2 5.3
2017 08 29 18:00 260.9 0.0 0.00 72.6 22.6 63.41 3.6
2017 08 29 19:00 262.0 0.0 0.00 70.0 21.1 67.86 1.6
2017 08 29 20:00 263.9 0.0 0.00 66.1 18.9 77.13 2.2
2017 08 29 21:00 265.7 0.0 0.00 64.1 17.9 83 0.8
2017 08 29 22:00 283.3 0.0 0.00 62.5 16.9 88.2 0.0
2017 08 29 23:00 Wet 311.5 0.0 0.00 60.0 15.6 98.4 0.2
2017 08 29 24:00 Wet 323.1 0.0 0.00 59.7 15.4 99.9 0.0
2017 08 30 1:00 Wet 325.8 0.0 0.00 60.3 15.7 99.9 0.0
2017 08 30 2:00 Wet 332.6 0.0 0.00 60.1 15.6 99.9 0.1
2017 08 30 3:00 Wet 351.6 0.0 0.00 59.8 15.5 99.9 0.3
2017 08 30 4:00 Wet 374.1 0.0 0.00 59.7 15.4 99.9 0.0
2017 08 30 5:00 Wet 395.9 0.0 0.00 59.5 15.3 99.9 0.1
2017 08 30 6:00 Wet 380.6 0.0 0.00 59.1 15.1 99.9 0.9
2017 08 30 7:00 Wet 333.8 0.0 0.00 60.0 15.6 99.6 0.1
2017 08 30 8:00 265.5 0.0 0.00 64.9 18.3 87.3 1.0
2017 08 30 9:00 262.6 0.0 0.00 69.8 21.0 76.64 4.6
2017 08 30 10:00 262.8 0.0 0.00 73.3 22.9 69.53 6.4
2017 08 30 11:00 262.4 0.0 0.00 76.1 24.5 65.98 7.4
2017 08 30 12:00 262.0 0.0 0.00 77.1 25.1 62.72 8.2
2017 08 30 13:00 261.2 0.0 0.00 78.3 25.7 55 8.5
2017 08 30 14:00 260.2 0.0 0.00 79.2 26.2 52.24 8.0
2017 08 30 15:00 259.8 0.0 0.00 78.8 26.0 51.87 7.8
2017 08 30 16:00 259.1 0.0 0.00 79.1 26.1 51.75 7.7
2017 08 30 17:00 259.4 0.0 0.00 78.2 25.7 55.53 7.1
2017 08 30 18:00 260.1 0.0 0.00 76.0 24.5 59.79 6.3
2017 08 30 19:00 262.1 0.0 0.00 72.7 22.6 68.03 4.2
2017 08 30 20:00 263.4 0.0 0.00 69.4 20.8 74.62 3.3
2017 08 30 21:00 264.0 0.0 0.00 67.7 19.8 79.31 3.4
2017 08 30 22:00 264.6 0.0 0.00 66.5 19.2 82.2 3.3
2017 08 30 23:00 265.1 0.0 0.00 65.9 18.8 83.6 4.2
2017 08 30 24:00 265.2 0.0 0.00 65.1 18.4 85.3 4.5
2017 08 31 1:00 265.9 0.0 0.00 64.3 17.9 87.1 4.7
2017 08 31 2:00 266.7 0.0 0.00 63.4 17.5 89.2 3.4
2017 08 31 3:00 276.9 0.0 0.00 62.2 16.8 96.3 0.5
2017 08 31 4:00 Wet 295.5 0.0 0.00 61.4 16.3 98.8 1.8
2017 08 31 5:00 Wet 297.0 0.0 0.00 61.6 16.5 98.1 3.0
2017 08 31 6:00 282.4 0.0 0.00 61.4 16.3 98 2.9
2017 08 31 7:00 269.4 0.0 0.00 62.2 16.8 93.8 4.3
2017 08 31 8:00 264.3 0.0 0.00 66.1 18.9 82.3 6.8
2017 08 31 9:00 264.9 0.0 0.00 70.1 21.2 74.03 8.7
2017 08 31 10:00 264.0 0.0 0.00 73.0 22.8 68.68 9.5
2017 08 31 11:00 263.0 0.0 0.00 74.6 23.7 64.69 10.1
2017 08 31 12:00 262.2 0.0 0.00 76.3 24.6 59.17 11.3
2017 08 31 13:00 261.6 0.0 0.00 77.2 25.1 55 11.9
2017 08 31 14:00 260.7 0.0 0.00 77.7 25.4 53.14 10.9
2017 08 31 15:00 260.7 0.0 0.00 76.9 24.9 53.75 10.9
2017 08 31 16:00 260.6 0.0 0.00 76.3 24.6 54.46 10.1
2017 08 31 17:00 260.3 0.0 0.00 76.0 24.4 54.95 9.1
2017 08 31 18:00 260.7 0.0 0.00 74.5 23.6 56.69 7.2
2017 08 31 19:00 262.4 0.0 0.00 71.2 21.8 64.6 4.3
2017 08 31 20:00 264.2 0.0 0.00 68.1 20.1 71.34 2.4
2017 08 31 21:00 265.4 0.0 0.00 66.1 18.9 76.88 1.7
2017 08 31 22:00 266.4 0.0 0.00 63.8 17.7 83.5 0.9
2017 08 31 23:00 265.1 0.0 0.00 61.5 16.4 94.5 1.1
2017 08 31 24:00 269.4 0.0 0.00 61.7 16.5 93 1.9
2017 09 01 1:00 271.5 0.0 0.00 61.5 16.4 93.5 0.9
2017 09 01 2:00 Wet 288.9 0.0 0.00 60.3 15.7 99.2 0.0
2017 09 01 3:00 Wet 308.0 0.0 0.00 58.0 14.4 99.8 1.3
2017 09 01 4:00 Wet 329.4 0.0 0.00 57.7 14.3 99.9 0.2
2017 09 01 5:00 Wet 356.9 0.0 0.00 57.6 14.2 99.9 0.4
2017 09 01 6:00 Wet 367.0 0.0 0.00 57.1 14.0 99.9 0.4
2017 09 01 7:00 Wet 337.8 0.0 0.00 57.5 14.2 99.9 0.2
2017 09 01 8:00 268.6 0.0 0.00 63.6 17.6 90.9 2.3
2017 09 01 9:00 263.5 0.0 0.00 67.4 19.7 77 5.4
2017 09 01 10:00 263.4 0.0 0.00 70.8 21.5 63.45 6.9
2017 09 01 11:00 262.5 0.0 0.00 72.6 22.5 57.26 7.0
2017 09 01 12:00 261.7 0.0 0.00 74.0 23.4 53.25 6.9
2017 09 01 13:00 261.4 0.0 0.00 74.9 23.8 50.63 7.7
2017 09 01 14:00 260.1 0.0 0.00 75.9 24.4 47.25 6.2
2017 09 01 15:00 259.4 0.0 0.00 76.5 24.7 44.92 5.7
2017 09 01 16:00 258.8 0.0 0.00 76.4 24.7 43.51 4.8
2017 09 01 17:00 258.9 0.0 0.00 75.9 24.4 44.78 4.5
2017 09 01 18:00 259.6 0.0 0.00 74.3 23.5 50.9 2.8
2017 09 01 19:00 262.5 0.0 0.00 70.0 21.1 60.88 0.8
2017 09 01 20:00 265.4 0.0 0.00 65.3 18.5 73.36 0.5
2017 09 01 21:00 268.5 0.0 0.00 61.0 16.1 85.9 0.7
2017 09 01 22:00 Wet 295.7 0.0 0.00 58.9 14.9 93.9 0.3
2017 09 01 23:00 Wet 323.6 0.0 0.00 56.8 13.8 99.6 0.5
2017 09 01 24:00 Wet 362.0 0.0 0.00 55.9 13.3 99.9 0.1
2017 09 02 1:00 Wet 376.6 0.0 0.00 54.4 12.4 99.9 0.5
2017 09 02 2:00 Wet 379.9 0.0 0.00 54.3 12.4 99.9 0.0
2017 09 02 3:00 Wet 370.2 0.0 0.00 54.6 12.5 99.9 0.0
2017 09 02 4:00 Wet 365.8 0.0 0.00 54.6 12.6 99.9 0.2
2017 09 02 5:00 Wet 347.8 0.0 0.00 55.2 12.9 99.9 0.0
2017 09 02 6:00 Wet 327.9 0.0 0.00 56.1 13.4 99.9 0.0
2017 09 02 7:00 Wet 301.9 0.0 0.00 57.5 14.2 99.8 0.4
2017 09 02 8:00 264.8 0.0 0.00 64.2 17.9 84.5 1.4
2017 09 02 9:00 262.4 0.0 0.00 70.0 21.1 74.15 2.7
2017 09 02 10:00 261.8 0.0 0.00 74.1 23.4 59.62 1.9
2017 09 02 11:00 261.1 0.0 0.00 76.9 24.9 53.57 1.7
2017 09 02 12:00 260.5 0.0 0.00 78.4 25.8 51.37 2.3
2017 09 02 13:00 260.0 0.0 0.00 79.8 26.6 50.21 2.4
2017 09 02 14:00 259.2 0.0 0.00 81.0 27.2 49.8 3.6
2017 09 02 15:00 258.9 0.0 0.00 81.1 27.3 50.63 3.8
2017 09 02 16:00 258.5 0.0 0.00 81.2 27.4 49.89 2.2
2017 09 02 17:00 258.7 0.0 0.00 80.9 27.2 51.76 3.5
2017 09 02 18:00 260.1 0.0 0.00 79.1 26.1 58.48 2.3
2017 09 02 19:00 263.2 0.0 0.00 75.1 24.0 70.03 1.5
2017 09 02 20:00 266.4 0.0 0.00 70.3 21.3 79.07 2.2
2017 09 02 21:00 270.6 0.0 0.00 66.5 19.2 88.1 0.2
2017 09 02 22:00 Wet 288.9 0.0 0.00 64.9 18.3 96.2 0.0
2017 09 02 23:00 Wet 310.4 0.0 0.00 63.7 17.6 98.5 0.5
2017 09 02 24:00 Wet 317.6 0.0 0.00 63.7 17.6 90.8 0.5
2017 09 03 1:00 Wet 333.3 0.0 0.00 62.4 16.9 98.2 0.0
2017 09 03 2:00 Wet 338.7 0.0 0.00 63.2 17.3 92.8 0.8
2017 09 03 3:00 Wet 333.9 0.0 0.00 63.4 17.4 93.6 0.1
2017 09 03 4:00 Wet 335.9 0.0 0.00 63.0 17.2 94.4 0.0
2017 09 03 5:00 Wet 336.5 0.0 0.00 62.5 17.0 97.2 2.4
2017 09 03 6:00 Wet 324.7 0.0 0.00 63.0 17.2 97 2.6
2017 09 03 7:00 Wet 284.9 0.0 0.00 65.3 18.5 89.1 3.3
2017 09 03 8:00 264.6 0.0 0.00 69.2 20.7 84.2 4.9
2017 09 03 9:00 263.1 0.0 0.00 73.7 23.2 78.3 6.6
2017 09 03 10:00 263.2 0.0 0.00 77.5 25.3 72.54 7.4
2017 09 03 11:00 262.0 0.0 0.00 80.2 26.8 64.17 7.7
2017 09 03 12:00 261.5 0.0 0.00 82.4 28.0 61.17 6.1
2017 09 03 13:00 261.5 0.0 0.00 82.8 28.2 60.33 6.0
2017 09 03 14:00 260.7 0.0 0.00 83.8 28.8 58.11 6.7
2017 09 03 15:00 260.7 0.0 0.00 83.7 28.7 56.6 6.0
2017 09 03 16:00 259.8 0.0 0.00 84.6 29.2 54.02 6.5
2017 09 03 17:00 259.8 0.0 0.00 84.4 29.1 54.94 6.2
2017 09 03 18:00 260.1 0.0 0.00 83.4 28.6 58.52 2.6
2017 09 03 19:00 262.6 0.0 0.00 79.7 26.5 67.04 1.0
2017 09 03 20:00 265.9 0.0 0.00 74.4 23.6 79.86 0.2
2017 09 03 21:00 268.8 0.0 0.00 71.5 21.9 85.8 0.1
2017 09 03 22:00 269.7 0.0 0.00 70.4 21.3 85.9 0.4
2017 09 03 23:00 266.1 0.0 0.00 71.0 21.7 83.3 4.1
2017 09 03 24:00 266.3 0.0 0.00 69.8 21.0 85.1 4.0
2017 09 04 1:00 266.9 0.0 0.00 69.1 20.6 86.4 3.4
2017 09 04 2:00 266.5 0.0 0.00 69.4 20.8 86.7 5.3
2017 09 04 3:00 266.5 0.0 0.00 69.3 20.8 87.7 4.6
2017 09 04 4:00 266.7 0.0 0.00 69.5 20.9 87.9 4.9
2017 09 04 5:00 267.1 0.0 0.00 69.2 20.7 89.6 4.5
2017 09 04 6:00 266.9 0.0 0.00 69.7 20.9 88.3 5.6
2017 09 04 7:00 265.3 0.0 0.00 70.8 21.6 86.3 6.9
2017 09 04 8:00 263.6 0.0 0.00 73.6 23.1 80.6 10.1
2017 09 04 9:00 262.7 0.0 0.00 76.4 24.7 75.07 10.5
2017 09 04 10:00 263.0 0.0 0.00 79.1 26.2 69.93 9.9
2017 09 04 11:00 262.0 0.0 0.00 82.1 27.8 64.13 10.2
2017 09 04 12:00 261.6 0.0 0.00 84.5 29.2 58.95 10.7
2017 09 04 13:00 261.3 0.0 0.00 86.1 30.1 55.05 10.2
2017 09 04 14:00 260.4 0.0 0.00 87.1 30.6 52.07 10.3
2017 09 04 15:00 259.9 0.0 0.00 87.3 30.7 49.72 10.4
2017 09 04 16:00 259.5 0.0 0.00 87.2 30.7 49 9.5
2017 09 04 17:00 259.5 0.0 0.00 86.3 30.1 50.93 6.9
2017 09 04 18:00 260.6 0.0 0.00 83.8 28.8 59.09 4.4
2017 09 04 19:00 262.6 0.0 0.00 79.1 26.2 68.59 2.2
2017 09 04 20:00 264.5 0.0 0.00 75.1 23.9 76.9 1.0
2017 09 04 21:00 264.5 0.0 0.00 74.7 23.7 77.92 0.1
2017 09 04 22:00 263.9 0.0 0.00 76.0 24.4 75.75 4.4
2017 09 04 23:00 264.4 0.0 0.00 74.9 23.9 81.8 4.4
2017 09 04 24:00 263.4 0.0 0.00 73.3 23.0 68.47 8.8
2017 09 05 1:00 262.6 0.0 0.00 71.2 21.8 57.6 9.3
2017 09 05 2:00 262.4 0.0 0.00 69.8 21.0 57.18 8.6
2017 09 05 3:00 262.5 0.0 0.00 68.4 20.2 59.26 8.0
2017 09 05 4:00 263.1 0.0 0.00 66.4 19.1 65.04 5.2
2017 09 05 5:00 263.1 0.0 0.00 65.1 18.4 67.92 4.3
2017 09 05 6:00 263.7 0.0 0.00 63.6 17.6 72.68 4.8
2017 09 05 7:00 263.8 0.0 0.00 62.5 16.9 76.4 4.0
2017 09 05 8:00 263.8 0.0 0.00 62.1 16.7 76.39 5.8
2017 09 05 9:00 263.3 0.0 0.00 63.6 17.6 72.9 6.6
2017 09 05 10:00 262.5 0.0 0.00 66.2 19.0 63.55 6.2
2017 09 05 11:00 261.7 0.0 0.00 68.4 20.2 50.65 8.3
2017 09 05 12:00 260.3 0.0 0.00 70.8 21.6 38.44 9.6
2017 09 05 13:00 259.7 0.0 0.00 71.3 21.8 37.03 9.1
2017 09 05 14:00 259.1 0.0 0.00 72.7 22.6 38.49 8.1
2017 09 05 15:00 258.9 0.0 0.00 72.8 22.7 37.65 8.3
2017 09 05 16:00 258.4 0.0 0.00 73.1 22.8 33.22 9.3
2017 09 05 17:00 258.1 0.0 0.00 72.2 22.3 32.65 8.9
2017 09 05 18:00 259.0 0.0 0.00 69.5 20.9 39.43 5.4
2017 09 05 19:00 260.9 0.0 0.00 65.7 18.7 48.96 2.4
2017 09 05 20:00 262.5 0.0 0.00 61.9 16.6 56.11 2.6
2017 09 05 21:00 262.6 0.0 0.00 60.0 15.6 59.73 3.4
2017 09 05 22:00 262.8 0.0 0.00 58.3 14.6 63.07 3.7
2017 09 05 23:00 263.5 0.0 0.00 56.6 13.7 66.63 1.9
2017 09 05 24:00 265.9 0.0 0.00 54.2 12.3 72.33 0.6
2017 09 06 1:00 274.1 0.0 0.00 49.5 9.7 86.2 3.2
2017 09 06 2:00 Wet 291.8 0.0 0.00 47.0 8.4 92.1 3.2
2017 09 06 3:00 Wet 311.3 0.0 0.00 45.9 7.7 95.8 2.5
2017 09 06 4:00 Wet 335.6 0.0 0.00 46.2 7.9 94 1.3
2017 09 06 5:00 Wet 353.8 0.0 0.00 46.2 7.9 93.9 1.7
2017 09 06 6:00 Wet 376.7 0.0 0.00 44.7 7.0 97.4 1.4
2017 09 06 7:00 Wet 347.6 0.0 0.00 46.2 7.9 94.6 1.6
2017 09 06 8:00 267.3 0.0 0.00 52.4 11.3 80.8 2.8
2017 09 06 9:00 262.0 0.0 0.00 58.2 14.6 68.24 4.3
2017 09 06 10:00 262.1 0.0 0.00 62.8 17.1 55.81 6.0
2017 09 06 11:00 261.0 0.0 0.00 65.3 18.5 48.67 8.5
2017 09 06 12:00 260.3 0.0 0.00 66.4 19.1 42.12 9.1
2017 09 06 13:00 259.9 0.0 0.00 67.9 19.9 40.23 8.2
2017 09 06 14:00 259.6 0.0 0.00 67.5 19.7 39.06 6.5
2017 09 06 15:00 259.0 0.0 0.00 68.4 20.2 38.88 5.6
2017 09 06 16:00 258.6 0.0 0.00 68.6 20.3 38.83 6.8
2017 09 06 17:00 259.1 0.0 0.00 67.0 19.4 41.59 5.7
2017 09 06 18:00 258.9 0.0 0.00 67.0 19.4 42.11 3.9
2017 09 06 19:00 261.0 0.0 0.00 64.0 17.8 49.02 0.2
2017 09 06 20:00 265.2 0.0 0.00 56.4 13.5 69.21 1.3
2017 09 06 21:00 268.4 0.0 0.00 52.9 11.6 81.2 0.0
2017 09 06 22:00 283.7 0.0 0.00 50.3 10.2 87.8 0.0
2017 09 06 23:00 Wet 312.2 0.0 0.00 48.8 9.4 97.2 0.6
2017 09 06 24:00 Wet 340.2 0.0 0.00 47.4 8.6 99.8 0.2
2017 09 07 1:00 Wet 377.0 0.0 0.00 47.4 8.6 99.8 0.0
2017 09 07 2:00 Wet 405.1 0.0 0.00 46.2 7.9 99.9 0.0
2017 09 07 3:00 Wet 393.0 0.0 0.00 45.9 7.7 99.9 0.3
2017 09 07 4:00 Wet 395.4 0.0 0.00 44.9 7.2 99.9 0.0
2017 09 07 5:00 Wet 398.9 0.0 0.00 44.2 6.8 99.9 0.2
2017 09 07 6:00 Wet 398.6 0.0 0.00 43.9 6.6 99.9 0.4
2017 09 07 7:00 Wet 336.8 0.0 0.00 46.1 7.8 97.3 0.6
2017 09 07 8:00 268.3 0.0 0.00 56.9 13.9 75.41 2.0
2017 09 07 9:00 261.6 0.0 0.00 63.8 17.7 56.39 6.8
2017 09 07 10:00 261.7 0.0 0.00 67.6 19.8 48.63 8.6
2017 09 07 11:00 260.3 0.0 0.00 70.6 21.4 45.53 7.2
2017 09 07 12:00 259.6 0.0 0.00 72.8 22.7 42.11 7.6
2017 09 07 13:00 259.3 0.0 0.00 74.3 23.5 37.63 5.9
2017 09 07 14:00 258.6 0.0 0.00 75.8 24.4 35.34 5.8
2017 09 07 15:00 257.7 0.0 0.00 76.7 24.8 33.46 5.5
2017 09 07 16:00 257.3 0.0 0.00 77.1 25.0 33.54 5.5
2017 09 07 17:00 256.8 0.0 0.00 77.4 25.2 33.78 2.2
2017 09 07 18:00 257.9 0.0 0.00 76.5 24.7 39.4 0.3
2017 09 07 19:00 261.4 0.0 0.00 70.4 21.3 49.66 0.6
2017 09 07 20:00 263.7 0.0 0.00 64.0 17.8 67.15 0.5
2017 09 07 21:00 265.7 0.0 0.00 59.9 15.5 78.95 0.3
2017 09 07 22:00 269.0 0.0 0.00 57.5 14.2 84.2 0.2
2017 09 07 23:00 278.8 0.0 0.00 55.7 13.2 89.9 0.3
2017 09 07 24:00 Wet 291.3 0.0 0.00 55.4 13.0 88.9 0.1
2017 09 08 1:00 Wet 308.4 0.0 0.00 54.0 12.2 95.9 0.5
2017 09 08 2:00 Wet 326.4 0.0 0.00 53.4 11.9 97 0.2
2017 09 08 3:00 Wet 348.0 0.0 0.00 51.9 11.0 99.9 1.2
2017 09 08 4:00 Wet 369.1 0.0 0.00 51.3 10.7 99.9 0.8
2017 09 08 5:00 Wet 388.4 0.0 0.00 50.7 10.4 99.9 1.3
2017 09 08 6:00 Wet 401.7 0.0 0.00 50.6 10.4 99.9 0.8
2017 09 08 7:00 Wet 355.0 0.0 0.00 52.3 11.3 97.4 0.5
2017 09 08 8:00 267.3 0.0 0.00 59.1 15.0 82.7 0.2
2017 09 08 9:00 261.8 0.0 0.00 68.0 20.0 62.23 4.8
2017 09 08 10:00 261.7 0.0 0.00 72.3 22.4 53.72 5.8
2017 09 08 11:00 260.2 0.0 0.00 75.6 24.2 48.01 5.0
2017 09 08 12:00 259.3 0.0 0.00 77.8 25.4 42.63 3.5
2017 09 08 13:00 258.9 0.0 0.00 79.4 26.3 41.58 3.4
2017 09 08 14:00 258.0 0.0 0.00 80.4 26.9 39.77 3.4
2017 09 08 15:00 257.3 0.0 0.00 81.0 27.2 38.49 3.3
2017 09 08 16:00 256.8 0.0 0.00 81.7 27.6 38.39 2.2
2017 09 08 17:00 256.3 0.0 0.00 81.6 27.6 39.53 1.0
2017 09 08 18:00 258.3 0.0 0.00 78.7 26.0 49.99 0.3
2017 09 08 19:00 261.6 0.0 0.00 74.4 23.6 58.97 0.3
2017 09 08 20:00 264.2 0.0 0.00 67.2 19.5 74.7 1.5
2017 09 08 21:00 265.7 0.0 0.00 64.0 17.8 82.2 0.4
2017 09 08 22:00 273.0 0.0 0.00 61.9 16.6 88.9 0.1
2017 09 08 23:00 Wet 307.0 0.0 0.00 59.8 15.5 99.2 0.1
2017 09 08 24:00 Wet 349.5 0.0 0.00 57.7 14.3 99.9 0.2
2017 09 09 1:00 Wet 391.2 0.0 0.00 56.7 13.7 99.9 0.4
2017 09 09 2:00 Wet 396.4 0.0 0.00 55.9 13.3 99.9 0.5
2017 09 09 3:00 Wet 380.2 0.0 0.00 55.6 13.1 97.6 0.8
2017 09 09 4:00 Wet 371.6 0.0 0.00 55.2 12.9 99.4 0.4
2017 09 09 5:00 Wet 375.8 0.0 0.00 53.6 12.0 99.9 0.6
2017 09 09 6:00 Wet 371.0 0.0 0.00 53.5 12.0 99.6 2.9
2017 09 09 7:00 Wet 310.5 0.0 0.00 55.6 13.1 97.6 0.8
2017 09 09 8:00 266.1 0.0 0.00 60.7 15.9 86.3 1.9
2017 09 09 9:00 262.2 0.0 0.00 69.2 20.7 70.42 2.9
2017 09 09 10:00 261.6 0.0 0.00 74.6 23.6 56.77 2.2
2017 09 09 11:00 259.8 0.0 0.00 77.6 25.4 47.97 1.8
2017 09 09 12:00 259.4 0.0 0.00 78.9 26.0 47.77 2.1
2017 09 09 13:00 259.0 0.0 0.00 79.8 26.5 45.02 4.0
2017 09 09 14:00 258.2 0.0 0.00 80.4 26.9 44.43 4.7
2017 09 09 15:00 257.9 0.0 0.00 80.3 26.8 43.99 4.5
2017 09 09 16:00 257.9 0.0 0.00 80.1 26.7 45.1 4.0
2017 09 09 17:00 258.1 0.0 0.00 79.6 26.4 47.7 4.3
2017 09 09 18:00 258.9 0.0 0.00 77.4 25.2 52.54 3.3
2017 09 09 19:00 261.6 0.0 0.00 73.7 23.2 60.39 0.6
2017 09 09 20:00 264.9 0.0 0.00 69.7 20.9 72.31 0.0
2017 09 09 21:00 270.0 0.0 0.00 65.6 18.6 84.7 0.0
2017 09 09 22:00 Wet 288.0 0.0 0.00 62.9 17.1 93.6 1.1
2017 09 09 23:00 Wet 294.6 0.0 0.00 61.4 16.4 91.5 2.5
2017 09 09 24:00 266.5 0.0 0.00 61.6 16.5 82.7 2.6
2017 09 10 1:00 267.7 0.0 0.00 60.2 15.7 85 1.1
2017 09 10 2:00 269.2 0.0 0.00 59.7 15.4 87 0.0
2017 09 10 3:00 Wet 295.4 0.0 0.00 58.5 14.7 93 0.0
2017 09 10 4:00 Wet 340.9 0.0 0.00 56.8 13.8 99.6 0.0
2017 09 10 5:00 Wet 388.8 0.0 0.00 56.0 13.3 99.7 0.0
2017 09 10 6:00 Wet 411.7 0.0 0.00 54.1 12.3 99.9 0.0
2017 09 10 7:00 Wet 360.4 0.0 0.00 54.2 12.4 99.8 0.0
2017 09 10 8:00 275.4 0.0 0.00 60.6 15.9 84.4 0.0
2017 09 10 9:00 262.4 0.0 0.00 67.4 19.6 70.69 2.1
2017 09 10 10:00 261.8 0.0 0.00 72.2 22.3 55.12 7.7
2017 09 10 11:00 260.8 0.0 0.00 74.0 23.3 49.75 7.9
2017 09 10 12:00 260.0 0.0 0.00 75.7 24.3 44.38 6.5
2017 09 10 13:00 259.2 0.0 0.00 76.1 24.5 41.6 5.2
2017 09 10 14:00 258.7 0.0 0.00 75.9 24.4 41.15 4.3
2017 09 10 15:00 257.9 0.0 0.00 76.8 24.9 41.11 5.7
2017 09 10 16:00 257.5 0.0 0.00 76.9 24.9 41.59 5.3
2017 09 10 17:00 257.7 0.0 0.00 76.0 24.5 43.2 4.7
2017 09 10 18:00 258.6 0.0 0.00 73.7 23.2 47.41 3.0
2017 09 10 19:00 261.8 0.0 0.00 69.7 20.9 57.8 0.3
2017 09 10 20:00 264.2 0.0 0.00 65.3 18.5 69.22 0.1
2017 09 10 21:00 270.9 0.0 0.00 61.5 16.4 81.3 0.0
2017 09 10 22:00 Wet 298.5 0.0 0.00 58.8 14.9 91.3 0.1
2017 09 10 23:00 Wet 324.9 0.0 0.00 56.1 13.4 98.8 0.1
2017 09 10 24:00 Wet 362.6 0.0 0.00 54.8 12.7 99.9 0.3
2017 09 11 1:00 Wet 401.0 0.0 0.00 53.3 11.8 99.9 0.1
2017 09 11 2:00 Wet 396.2 0.0 0.00 52.9 11.6 99.9 0.5
2017 09 11 3:00 Wet 398.5 0.0 0.00 52.1 11.2 99.9 0.1
2017 09 11 4:00 Wet 398.3 0.0 0.00 51.5 10.8 99.9 0.2
2017 09 11 5:00 Wet 404.5 0.0 0.00 50.5 10.3 99.9 0.0
2017 09 11 6:00 Wet 401.1 0.0 0.00 49.5 9.8 99.9 0.1
2017 09 11 7:00 Wet 351.1 0.0 0.00 50.0 10.0 99.9 0.0
2017 09 11 8:00 281.2 0.0 0.00 56.3 13.5 90.7 1.2
2017 09 11 9:00 263.0 0.0 0.00 63.1 17.3 73.44 3.4
2017 09 11 10:00 261.9 0.0 0.00 69.1 20.6 51.85 4.5
2017 09 11 11:00 260.6 0.0 0.00 70.9 21.6 44.83 6.2
2017 09 11 12:00 260.1 0.0 0.00 72.7 22.6 41.34 8.1
2017 09 11 13:00 259.3 0.0 0.00 73.3 22.9 39.58 7.4
2017 09 11 14:00 258.7 0.0 0.00 74.5 23.6 38.87 7.2
2017 09 11 15:00 258.1 0.0 0.00 75.1 23.9 37.93 7.6
2017 09 11 16:00 257.6 0.0 0.00 75.3 24.1 38.46 7.0
2017 09 11 17:00 257.6 0.0 0.00 74.2 23.5 39.94 6.1
2017 09 11 18:00 258.5 0.0 0.00 71.8 22.1 44.53 4.6
2017 09 11 19:00 260.9 0.0 0.00 67.4 19.7 53.25 1.5
2017 09 11 20:00 262.5 0.0 0.00 63.7 17.6 62.27 0.5
2017 09 11 21:00 263.9 0.0 0.00 60.9 16.1 68.43 0.0
2017 09 11 22:00 275.8 0.0 0.00 55.5 13.1 81.8 0.0
2017 09 11 23:00 Wet 307.6 0.0 0.00 51.8 11.0 96.2 0.0
2017 09 11 24:00 Wet 329.3 0.0 0.00 49.8 9.9 97.8 0.3
2017 09 12 1:00 Wet 343.9 0.0 0.00 49.9 9.9 99.9 1.1
2017 09 12 2:00 Wet 349.6 0.0 0.00 50.3 10.2 99.9 0.0
2017 09 12 3:00 Wet 352.3 0.0 0.00 51.0 10.6 99.7 0.7
2017 09 12 4:00 Wet 354.3 0.0 0.00 51.7 10.9 99.4 0.7
2017 09 12 5:00 Wet 349.2 0.0 0.00 52.2 11.2 95.6 0.7
2017 09 12 6:00 Wet 348.8 0.0 0.00 52.4 11.4 95 0.3
2017 09 12 7:00 Wet 320.8 0.0 0.00 53.2 11.8 88.7 1.6
2017 09 12 8:00 269.9 0.0 0.00 57.3 14.1 80.8 4.2
2017 09 12 9:00 263.5 0.0 0.00 61.3 16.3 69.65 6.2
2017 09 12 10:00 262.2 0.0 0.00 64.5 18.1 59.38 8.4
2017 09 12 11:00 261.8 0.0 0.00 66.7 19.3 55.17 9.8
2017 09 12 12:00 260.8 0.0 0.00 69.9 21.1 48.62 9.1
2017 09 12 13:00 259.9 0.0 0.00 71.9 22.2 43.27 9.1
2017 09 12 14:00 259.6 0.0 0.00 72.2 22.3 42.28 9.4
2017 09 12 15:00 260.1 0.0 0.00 70.7 21.5 46.38 8.1
2017 09 12 16:00 260.3 0.0 0.00 69.4 20.8 49.13 7.8
2017 09 12 17:00 260.8 0.0 0.00 68.1 20.0 52.58 6.3
2017 09 12 18:00 261.7 0.0 0.00 66.6 19.2 59.55 3.9
2017 09 12 19:00 262.7 0.0 0.00 63.8 17.7 67.36 1.8
2017 09 12 20:00 263.3 0.0 0.00 61.9 16.6 73.68 1.8
2017 09 12 21:00 264.1 0.0 0.00 60.5 15.8 76.58 0.5
2017 09 12 22:00 267.8 0.0 0.00 57.7 14.3 83.9 0.4
2017 09 12 23:00 274.3 0.0 0.00 54.8 12.6 92.5 2.5
2017 09 12 24:00 Wet 288.7 0.0 0.00 53.0 11.7 98 1.5
2017 09 13 1:00 Wet 293.4 0.0 0.00 53.0 11.6 98.6 1.1
2017 09 13 2:00 Wet 287.9 0.0 0.00 52.5 11.4 99.6 2.2
2017 09 13 3:00 Wet 293.7 0.0 0.00 52.7 11.5 99.7 0.4
2017 09 13 4:00 Wet 304.0 0.0 0.00 51.7 11.0 99.9 1.1
2017 09 13 5:00 Wet 310.3 0.0 0.00 52.4 11.3 99.7 0.1
2017 09 13 6:00 Wet 320.4 0.0 0.00 50.4 10.2 99.9 2.4
2017 09 13 7:00 Wet 314.6 0.0 0.00 51.9 11.1 99.8 0.9
2017 09 13 8:00 264.8 0.0 0.00 58.5 14.7 82 1.4
2017 09 13 9:00 262.6 0.0 0.00 64.5 18.0 64.33 3.4
2017 09 13 10:00 262.0 0.0 0.00 68.8 20.4 56.68 4.4
2017 09 13 11:00 260.7 0.0 0.00 72.6 22.6 48.22 4.8
2017 09 13 12:00 259.7 0.0 0.00 74.8 23.8 42.15 5.5
2017 09 13 13:00 259.3 0.0 0.00 76.5 24.7 40.14 6.5
2017 09 13 14:00 258.6 0.0 0.00 77.6 25.3 37.51 6.8
2017 09 13 15:00 257.7 0.0 0.00 78.6 25.9 35.82 5.5
2017 09 13 16:00 257.2 0.0 0.00 79.5 26.4 35.16 4.6
2017 09 13 17:00 257.1 0.0 0.00 78.6 25.9 36.59 2.8
2017 09 13 18:00 258.1 0.0 0.00 77.0 25.0 40.31 0.9
2017 09 13 19:00 261.8 0.0 0.00 70.1 21.2 51.74 0.1
2017 09 13 20:00 263.8 0.0 0.00 63.1 17.3 69.61 0.6
2017 09 13 21:00 267.2 0.0 0.00 59.8 15.4 79.35 0.2
2017 09 13 22:00 273.0 0.0 0.00 57.1 13.9 87.6 0.8
2017 09 13 23:00 275.0 0.0 0.00 56.0 13.3 89 0.8
2017 09 13 24:00 Wet 285.6 0.0 0.00 53.9 12.2 99.7 0.7
2017 09 14 1:00 Wet 311.9 0.0 0.00 53.4 11.9 99.9 0.3
2017 09 14 2:00 Wet 335.1 0.0 0.00 52.4 11.3 99.7 0.3
2017 09 14 3:00 Wet 348.2 0.0 0.00 52.1 11.2 99.2 1.0
2017 09 14 4:00 Wet 366.5 0.0 0.00 51.0 10.6 99.9 0.7
2017 09 14 5:00 Wet 385.4 0.0 0.00 50.7 10.4 99.9 0.0
2017 09 14 6:00 Wet 400.0 0.0 0.00 49.9 9.9 99.9 1.3
2017 09 14 7:00 Wet 378.1 0.0 0.00 51.1 10.6 99.3 0.2
2017 09 14 8:00 Wet 292.0 0.0 0.00 58.0 14.5 83.7 0.6
2017 09 14 9:00 262.9 0.0 0.00 68.8 20.5 66.86 2.0
2017 09 14 10:00 261.5 0.0 0.00 75.3 24.0 51.06 6.8
2017 09 14 11:00 259.9 0.0 0.00 77.9 25.5 46.19 6.6
2017 09 14 12:00 258.9 0.0 0.00 80.2 26.8 40.03 6.1
2017 09 14 13:00 258.4 0.0 0.00 81.9 27.7 34.01 6.4
2017 09 14 14:00 257.4 0.0 0.00 83.6 28.6 32.65 5.6
2017 09 14 15:00 256.8 0.0 0.00 84.1 29.0 33.91 4.9
2017 09 14 16:00 256.4 0.0 0.00 84.6 29.2 34.42 4.6
2017 09 14 17:00 256.7 0.0 0.00 83.5 28.6 36.56 5.2
2017 09 14 18:00 257.6 0.0 0.00 80.4 26.9 41.9 3.0
2017 09 14 19:00 259.9 0.0 0.00 75.2 24.0 47.93 4.1
2017 09 14 20:00 260.7 0.0 0.00 71.9 22.1 52.98 4.1
2017 09 14 21:00 262.7 0.0 0.00 66.0 18.9 67.75 2.1
2017 09 14 22:00 263.1 0.0 0.00 65.5 18.6 69.41 1.6
2017 09 14 23:00 264.5 0.0 0.00 63.4 17.5 75.93 0.4
2017 09 14 24:00 264.8 0.0 0.00 62.9 17.1 77.63 0.9
2017 09 15 1:00 264.4 0.0 0.00 64.8 18.2 74.88 3.4
2017 09 15 2:00 263.8 0.0 0.00 66.6 19.2 71.98 4.4
2017 09 15 3:00 265.0 0.0 0.00 63.2 17.3 79.69 1.7
2017 09 15 4:00 266.0 0.0 0.00 61.9 16.6 82.3 2.4
2017 09 15 5:00 266.9 0.0 0.00 60.6 15.9 85.6 2.2
2017 09 15 6:00 267.4 0.0 0.00 60.3 15.7 86.9 2.3
2017 09 15 7:00 265.8 0.0 0.00 61.2 16.2 86.8 0.8
2017 09 15 8:00 263.4 0.0 0.00 68.3 20.1 78.34 4.6
2017 09 15 9:00 262.5 0.0 0.00 73.3 22.9 69.55 7.9
2017 09 15 10:00 261.9 0.0 0.00 76.4 24.7 64.81 7.9
2017 09 15 11:00 260.8 0.0 0.00 80.1 26.7 58.94 7.5
2017 09 15 12:00 260.0 0.0 0.00 82.2 27.9 54.4 8.4
2017 09 15 13:00 259.6 0.0 0.00 83.0 28.4 53.21 6.1
2017 09 15 14:00 258.9 0.0 0.00 83.8 28.8 49.99 6.2
2017 09 15 15:00 258.1 0.0 0.00 84.7 29.3 47.03 7.7
2017 09 15 16:00 257.8 0.0 0.00 84.7 29.3 45.2 7.3
2017 09 15 17:00 258.6 0.0 0.00 83.2 28.4 46.47 6.1
2017 09 15 18:00 259.9 0.0 0.00 79.8 26.6 54.51 3.5
2017 09 15 19:00 261.9 0.0 0.00 75.6 24.2 61.83 2.8
2017 09 15 20:00 262.0 0.0 0.00 73.0 22.8 64.88 5.3
2017 09 15 21:00 262.3 0.0 0.00 71.7 22.0 69.3 6.0
2017 09 15 22:00 263.0 0.0 0.00 69.9 21.0 74.62 5.8
2017 09 15 23:00 263.1 0.0 0.00 70.5 21.4 73.47 6.3
2017 09 15 24:00 263.1 0.0 0.00 70.8 21.5 72.67 8.5
2017 09 16 1:00 263.1 0.0 0.00 69.5 20.8 75.88 6.5
2017 09 16 2:00 263.9 0.0 0.00 67.9 19.9 79.68 3.5
2017 09 16 3:00 267.2 0.0 0.00 65.1 18.4 86.1 2.2
2017 09 16 4:00 269.6 0.0 0.00 63.6 17.6 91 2.8
2017 09 16 5:00 276.8 0.0 0.00 62.5 16.9 98.5 3.3
2017 09 16 6:00 270.9 0.0 0.00 63.0 17.2 98.7 3.7
2017 09 16 7:00 265.7 0.0 0.00 64.8 18.2 91.4 5.0
2017 09 16 8:00 264.1 0.0 0.00 68.2 20.1 82.3 7.7
2017 09 16 9:00 263.0 0.0 0.00 72.7 22.6 72 10.0
2017 09 16 10:00 262.1 0.0 0.00 76.3 24.6 65.57 10.3
2017 09 16 11:00 261.4 0.0 0.00 79.0 26.1 61.79 9.7
2017 09 16 12:00 260.6 0.0 0.00 82.0 27.8 58.41 8.4
2017 09 16 13:00 260.0 0.0 0.00 84.0 28.9 53.83 8.4
2017 09 16 14:00 258.9 0.0 0.00 85.8 29.9 48.5 8.0
2017 09 16 15:00 258.1 0.0 0.00 87.2 30.7 44.72 7.9
2017 09 16 16:00 257.6 0.0 0.00 87.4 30.8 44.55 7.6
2017 09 16 17:00 258.9 0.0 0.00 85.0 29.5 48.5 6.6
2017 09 16 18:00 261.0 0.0 0.00 80.3 26.8 59.15 4.0
2017 09 16 19:00 262.0 0.0 0.00 72.1 22.3 72.69 9.0
2017 09 16 20:00 262.8 0.0 0.00 69.7 21.0 79.65 3.5
2017 09 16 21:00 263.7 0.0 0.00 68.6 20.3 83.6 5.2
2017 09 16 22:00 263.8 0.0 0.00 68.3 20.1 82.3 7.1
2017 09 16 23:00 263.8 0.0 0.00 68.5 20.3 80.9 4.6
2017 09 16 24:00 264.4 0.0 0.00 67.4 19.7 84.2 1.7
2017 09 17 1:00 263.9 0.0 0.00 68.9 20.5 79.84 4.0
2017 09 17 2:00 277.6 0.0 0.76 70.2 21.2 77.87 5.7
2017 09 17 3:00 271.0 0.0 0.00 70.9 21.6 78.86 7.2
2017 09 17 4:00 263.8 0.0 0.00 71.4 21.9 76.65 3.0
2017 09 17 5:00 264.8 0.0 0.00 69.6 20.9 83.9 2.1
2017 09 17 6:00 267.5 0.0 0.00 68.5 20.3 87.7 1.4
2017 09 17 7:00 275.8 0.0 0.25 67.9 19.9 95.3 7.4
2017 09 17 8:00 267.6 0.0 0.00 67.9 19.9 98.4 7.7
2017 09 17 9:00 279.2 0.0 0.25 67.0 19.4 97.1 9.7
2017 09 17 10:00 271.6 0.0 0.00 66.4 19.1 98.6 9.7
2017 09 17 11:00 278.6 0.0 0.76 65.7 18.7 99.4 7.5
2017 09 17 12:00 Wet 380.8 0.1 3.05 63.7 17.6 99.9 7.2
2017 09 17 13:00 Wet 413.1 0.2 3.81 63.2 17.3 99.9 8.3
2017 09 17 14:00 269.2 0.0 0.00 65.4 18.6 99.5 8.5
2017 09 17 15:00 264.2 0.0 0.00 67.4 19.7 89.2 5.2
2017 09 17 16:00 263.2 0.0 0.00 69.1 20.6 84.2 1.3
2017 09 17 17:00 264.1 0.0 0.00 68.7 20.4 85.5 0.9
2017 09 17 18:00 265.4 0.0 0.00 68.1 20.0 91.6 0.2
2017 09 17 19:00 267.8 0.0 0.00 66.7 19.3 99.9 1.8
2017 09 17 20:00 268.4 0.0 0.00 66.3 19.1 99.9 4.3
2017 09 17 21:00 268.3 0.0 0.00 66.3 19.1 99.9 3.4
2017 09 17 22:00 275.3 0.0 0.00 65.7 18.7 99.9 2.2
2017 09 17 23:00 Wet 296.5 0.0 0.00 64.6 18.1 99.9 2.2
2017 09 17 24:00 Wet 291.8 0.0 0.00 64.8 18.2 99.9 4.2
2017 09 18 1:00 267.7 0.0 0.00 64.9 18.3 99.2 2.5
2017 09 18 2:00 276.6 0.0 0.00 63.8 17.7 99.8 1.6
2017 09 18 3:00 Wet 286.4 0.0 0.00 63.2 17.3 99.8 0.5
2017 09 18 4:00 Wet 300.5 0.0 0.00 62.6 17.0 99.7 0.8
2017 09 18 5:00 268.2 0.0 0.00 64.7 18.1 91.2 4.1
2017 09 18 6:00 265.9 0.0 0.00 65.7 18.7 88 3.8
2017 09 18 7:00 265.6 0.0 0.00 66.3 19.1 86.4 4.6
2017 09 18 8:00 264.3 0.0 0.00 69.1 20.6 82.3 4.2
2017 09 18 9:00 263.5 0.0 0.00 72.8 22.7 75.53 5.3
2017 09 18 10:00 263.0 0.0 0.00 75.6 24.2 71.4 7.8
2017 09 18 11:00 262.5 0.0 0.00 76.6 24.8 69.85 9.7
2017 09 18 12:00 262.3 0.0 0.00 76.6 24.8 70.07 9.8
2017 09 18 13:00 262.6 0.0 0.00 76.1 24.5 71.29 6.3
2017 09 18 14:00 262.6 0.0 0.00 76.1 24.5 71.28 1.7
2017 09 18 15:00 261.6 0.0 0.00 78.0 25.6 64.63 2.8
2017 09 18 16:00 261.4 0.0 0.00 78.7 25.9 60.62 5.5
2017 09 18 17:00 260.4 0.0 0.00 78.7 25.9 59.89 4.1
2017 09 18 18:00 260.6 0.0 0.00 77.1 25.1 63.71 2.5
2017 09 18 19:00 265.4 0.0 0.00 72.1 22.3 73.72 0.2
2017 09 18 20:00 269.7 0.0 0.00 67.7 19.8 84.7 0.0
2017 09 18 21:00 277.4 0.0 0.00 65.2 18.4 96.1 1.1
2017 09 18 22:00 276.3 0.0 0.00 64.9 18.3 97.3 0.7
2017 09 18 23:00 Wet 290.8 0.0 0.00 64.8 18.3 99.9 0.4
2017 09 18 24:00 Wet 318.2 0.0 0.00 64.9 18.3 99.9 0.0
2017 09 19 1:00 Wet 341.5 0.0 0.00 65.2 18.4 98.8 2.0
2017 09 19 2:00 Wet 365.9 0.0 0.00 64.1 17.8 99.9 0.0
2017 09 19 3:00 Wet 393.4 0.0 0.00 63.3 17.4 99.9 1.6
2017 09 19 4:00 Wet 378.7 0.0 0.00 62.7 17.1 99.9 2.2
2017 09 19 5:00 Wet 373.7 0.0 0.00 61.6 16.5 99.9 1.7
2017 09 19 6:00 Wet 366.6 0.0 0.00 62.3 16.8 99.8 3.6
2017 09 19 7:00 Wet 319.2 0.0 0.00 63.4 17.5 99.9 2.7
2017 09 19 8:00 267.0 0.0 0.00 67.6 19.8 97.4 4.0
2017 09 19 9:00 263.8 0.0 0.00 73.2 22.9 79.93 3.7
2017 09 19 10:00 263.0 0.0 0.00 77.5 25.3 71.06 6.3
2017 09 19 11:00 261.9 0.0 0.00 80.9 27.2 64.07 9.6
2017 09 19 12:00 261.2 0.0 0.00 83.3 28.5 57.3 9.0
2017 09 19 13:00 260.3 0.0 0.00 85.1 29.5 53.04 9.2
2017 09 19 14:00 259.6 0.0 0.00 85.8 29.9 51.2 9.7
2017 09 19 15:00 259.2 0.0 0.00 85.9 29.9 51.29 9.0
2017 09 19 16:00 258.7 0.0 0.00 86.2 30.1 47.95 9.6
2017 09 19 17:00 258.7 0.0 0.00 84.7 29.3 49.18 8.4
2017 09 19 18:00 259.5 0.0 0.00 81.9 27.7 55.71 6.4
2017 09 19 19:00 261.6 0.0 0.00 77.8 25.4 63.61 4.5
2017 09 19 20:00 263.0 0.0 0.00 73.2 22.9 73.74 2.0
2017 09 19 21:00 263.7 0.0 0.00 71.5 21.9 78.03 2.9
2017 09 19 22:00 263.7 0.0 0.00 72.7 22.6 77.07 4.4
2017 09 19 23:00 263.7 0.0 0.00 73.5 23.0 77 5.9
2017 09 19 24:00 263.8 0.0 0.00 72.9 22.7 80.4 4.8
2017 09 20 1:00 264.5 0.0 0.00 72.0 22.2 84.5 4.8
2017 09 20 2:00 265.1 0.0 0.00 71.3 21.8 86.9 4.7
2017 09 20 3:00 265.3 0.0 0.00 71.2 21.8 87.6 5.8
2017 09 20 4:00 265.9 0.0 0.00 70.8 21.6 91.7 5.4
2017 09 20 5:00 267.8 0.0 0.00 70.2 21.2 98.4 4.8
2017 09 20 6:00 267.0 0.0 0.00 71.5 21.9 94.1 5.0
2017 09 20 7:00 265.0 0.0 0.00 73.2 22.9 87.9 6.4
2017 09 20 8:00 263.4 0.0 0.00 76.1 24.5 81.5 9.1
2017 09 20 9:00 263.0 0.0 0.00 79.2 26.2 75.33 11.1
2017 09 20 10:00 262.6 0.0 0.00 81.9 27.7 70.25 11.9
2017 09 20 11:00 261.6 0.0 0.00 84.7 29.3 64.74 11.6
2017 09 20 12:00 260.8 0.0 0.00 86.7 30.4 60.41 11.1
2017 09 20 13:00 260.4 0.0 0.00 88.2 31.2 56.28 11.0
2017 09 20 14:00 259.6 0.0 0.00 89.4 31.9 51.71 10.7
2017 09 20 15:00 258.8 0.0 0.00 89.7 32.1 50.05 10.5
2017 09 20 16:00 258.8 0.0 0.00 89.0 31.7 51.62 9.9
2017 09 20 17:00 258.8 0.0 0.00 87.6 30.9 54.54 9.9
2017 09 20 18:00 259.5 0.0 0.00 85.3 29.6 57.85 6.8
2017 09 20 19:00 261.5 0.0 0.00 81.2 27.3 66.09 4.6
2017 09 20 20:00 262.3 0.0 0.00 79.2 26.2 69.3 4.0
2017 09 20 21:00 262.3 0.0 0.00 77.9 25.5 71.37 4.8
2017 09 20 22:00 262.4 0.0 0.00 77.7 25.4 71.9 6.5
2017 09 20 23:00 263.0 0.0 0.00 76.6 24.8 74.31 6.1
2017 09 20 24:00 263.0 0.0 0.00 75.6 24.2 76.86 6.3
2017 09 21 1:00 264.0 0.0 0.00 73.8 23.2 81.2 2.7
2017 09 21 2:00 266.1 0.0 0.00 71.2 21.8 87.4 2.2
2017 09 21 3:00 265.8 0.0 0.00 71.5 21.9 86.6 2.6
2017 09 21 4:00 267.3 0.0 0.00 70.1 21.2 92.6 3.0
2017 09 21 5:00 274.7 0.0 0.00 68.3 20.2 99.5 2.4
2017 09 21 6:00 Wet 288.0 0.0 0.00 67.7 19.8 99.9 2.4
2017 09 21 7:00 270.3 0.0 0.00 70.3 21.3 97.1 5.2
2017 09 21 8:00 263.3 0.0 0.00 74.0 23.4 85.8 7.1
2017 09 21 9:00 263.1 0.0 0.00 78.3 25.7 76.24 8.1
2017 09 21 10:00 262.3 0.0 0.00 81.5 27.5 69.08 8.6
2017 09 21 11:00 261.4 0.0 0.00 84.1 28.9 64.55 8.6
2017 09 21 12:00 260.8 0.0 0.00 86.1 30.1 60.38 8.5
2017 09 21 13:00 260.3 0.0 0.00 86.9 30.5 55.77 10.6
2017 09 21 14:00 259.6 0.0 0.00 87.8 31.0 54.11 9.2
2017 09 21 15:00 258.9 0.0 0.00 87.9 31.0 53.21 8.8
2017 09 21 16:00 258.7 0.0 0.00 87.3 30.7 52.71 9.2
2017 09 21 17:00 258.6 0.0 0.00 86.5 30.3 53.74 7.5
2017 09 21 18:00 259.7 0.0 0.00 83.9 28.8 59.7 4.8
2017 09 21 19:00 261.8 0.0 0.00 79.3 26.3 68.04 3.4
2017 09 21 20:00 262.8 0.0 0.00 76.1 24.5 73.95 3.7
2017 09 21 21:00 262.9 0.0 0.00 76.2 24.6 72.72 4.7
2017 09 21 22:00 263.0 0.0 0.00 75.7 24.3 73.84 5.8
2017 09 21 23:00 263.3 0.0 0.00 73.7 23.2 78.46 4.9
2017 09 21 24:00 263.8 0.0 0.00 72.8 22.7 81.2 4.6
2017 09 22 1:00 264.2 0.0 0.00 72.5 22.5 82.1 5.1
2017 09 22 2:00 264.4 0.0 0.00 71.5 21.9 84.6 5.1
2017 09 22 3:00 265.6 0.0 0.00 70.0 21.1 88.3 4.5
2017 09 22 4:00 265.8 0.0 0.00 69.8 21.0 89 4.7
2017 09 22 5:00 268.2 0.0 0.00 68.8 20.4 96.6 3.2
2017 09 22 6:00 270.2 0.0 0.00 68.1 20.1 99.5 2.5
2017 09 22 7:00 266.7 0.0 0.00 68.3 20.2 99.5 2.9
2017 09 22 8:00 263.0 0.0 0.00 72.4 22.4 85.5 5.8
2017 09 22 9:00 262.9 0.0 0.00 77.4 25.2 74.46 7.4
2017 09 22 10:00 262.0 0.0 0.00 81.0 27.2 65.96 8.1
2017 09 22 11:00 260.9 0.0 0.00 83.3 28.5 59.54 8.8
2017 09 22 12:00 260.1 0.0 0.00 85.3 29.6 54.4 8.8
2017 09 22 13:00 259.6 0.0 0.00 86.2 30.1 51.57 9.6
2017 09 22 14:00 258.9 0.0 0.00 87.0 30.5 49.09 8.6
2017 09 22 15:00 258.2 0.0 0.00 87.5 30.9 46.62 8.8
2017 09 22 16:00 257.8 0.0 0.00 87.4 30.8 44.79 8.6
2017 09 22 17:00 257.8 0.0 0.00 86.4 30.2 45.89 7.5
2017 09 22 18:00 258.6 0.0 0.00 83.5 28.6 50.8 4.4
2017 09 22 19:00 261.2 0.0 0.00 79.3 26.3 59.21 3.7
2017 09 22 20:00 262.3 0.0 0.00 75.1 24.0 68.25 2.1
2017 09 22 21:00 264.7 0.0 0.00 71.2 21.8 79.18 1.3
2017 09 22 22:00 266.9 0.0 0.00 69.2 20.7 85.3 0.5
2017 09 22 23:00 268.2 0.0 0.00 67.5 19.7 91 1.3
2017 09 22 24:00 278.1 0.0 0.00 67.4 19.6 88.5 0.6
2017 09 23 1:00 271.8 0.0 0.00 66.8 19.3 88.4 1.0
2017 09 23 2:00 269.6 0.0 0.00 66.2 19.0 92.5 2.2
2017 09 23 3:00 268.2 0.0 0.00 65.7 18.7 96.4 2.4
2017 09 23 4:00 270.2 0.0 0.00 65.9 18.9 95.4 0.6
2017 09 23 5:00 279.6 0.0 0.00 65.7 18.7 98.2 0.6
2017 09 23 6:00 Wet 301.3 0.0 0.00 63.8 17.7 99.8 1.1
2017 09 23 7:00 Wet 294.3 0.0 0.00 64.3 17.9 99.8 1.5
2017 09 23 8:00 262.7 0.0 0.00 70.1 21.1 86.8 3.0
2017 09 23 9:00 262.7 0.0 0.00 77.1 25.1 71.49 4.9
2017 09 23 10:00 261.5 0.0 0.00 82.5 28.0 57.33 5.1
2017 09 23 11:00 259.7 0.0 0.00 84.9 29.4 49.64 5.3
2017 09 23 12:00 258.9 0.0 0.00 85.9 30.0 46.15 4.5
2017 09 23 13:00 258.7 0.0 0.00 86.1 30.1 43.44 4.2
2017 09 23 14:00 257.6 0.0 0.00 87.7 30.9 39.91 4.0
2017 09 23 15:00 257.5 0.0 0.00 87.1 30.6 40.47 3.9
2017 09 23 16:00 257.1 0.0 0.00 87.0 30.6 40 3.0
2017 09 23 17:00 258.1 0.0 0.00 85.5 29.7 45.29 1.9
2017 09 23 18:00 259.0 0.0 0.00 83.7 28.7 46.73 0.3
2017 09 23 19:00 261.9 0.0 0.00 77.4 25.2 61.67 0.9
2017 09 23 20:00 262.9 0.0 0.00 73.8 23.2 67.63 0.1
2017 09 23 21:00 264.4 0.0 0.00 70.2 21.2 76.14 0.3
2017 09 23 22:00 265.4 0.0 0.00 67.2 19.6 84.5 2.8
2017 09 23 23:00 264.4 0.0 0.00 67.5 19.7 79.39 2.4
2017 09 23 24:00 265.3 0.0 0.00 66.9 19.4 80.3 0.0
2017 09 24 1:00 265.9 0.0 0.00 65.4 18.6 84.8 1.6
2017 09 24 2:00 268.6 0.0 0.00 65.0 18.3 87 0.4
2017 09 24 3:00 282.2 0.0 0.00 63.9 17.7 94.6 0.5
2017 09 24 4:00 Wet 306.2 0.0 0.00 62.6 17.0 99.8 0.5
2017 09 24 5:00 Wet 329.8 0.0 0.00 63.0 17.2 99.8 0.0
2017 09 24 6:00 Wet 351.8 0.0 0.00 63.3 17.4 99.8 0.1
2017 09 24 7:00 Wet 328.8 0.0 0.00 63.6 17.6 99.6 1.0
2017 09 24 8:00 264.9 0.0 0.00 68.8 20.4 85.5 3.0
2017 09 24 9:00 262.7 0.0 0.00 75.9 24.4 72.22 6.1
2017 09 24 10:00 261.7 0.0 0.00 81.1 27.3 61.22 6.6
2017 09 24 11:00 260.1 0.0 0.00 84.0 28.9 54.27 7.4
2017 09 24 12:00 259.3 0.0 0.00 84.9 29.4 49.37 8.1
2017 09 24 13:00 259.0 0.0 0.00 85.8 29.9 47.93 8.1
2017 09 24 14:00 258.2 0.0 0.00 87.0 30.6 43.45 6.2
2017 09 24 15:00 257.6 0.0 0.00 87.4 30.8 42.46 6.4
2017 09 24 16:00 258.5 0.0 0.00 83.8 28.8 50.69 7.2
2017 09 24 17:00 258.4 0.0 0.00 82.6 28.1 54.1 5.1
2017 09 24 18:00 259.9 0.0 0.00 79.3 26.3 59.35 6.0
2017 09 24 19:00 261.9 0.0 0.00 74.9 23.8 71.53 6.2
2017 09 24 20:00 262.3 0.0 0.00 72.2 22.3 72.52 5.4
2017 09 24 21:00 263.0 0.0 0.00 69.5 20.8 76.58 3.5
2017 09 24 22:00 263.2 0.0 0.00 68.6 20.4 77.61 4.5
2017 09 24 23:00 263.2 0.0 0.00 68.7 20.4 76.46 4.1
2017 09 24 24:00 264.5 0.0 0.00 66.9 19.4 81 1.0
2017 09 25 1:00 265.3 0.0 0.00 65.8 18.8 84.3 2.2
2017 09 25 2:00 266.8 0.0 0.00 65.1 18.4 86.5 0.8
2017 09 25 3:00 269.5 0.0 0.00 63.5 17.5 94.8 0.9
2017 09 25 4:00 Wet 286.3 0.0 0.00 62.5 17.0 99.8 1.6
2017 09 25 5:00 Wet 308.5 0.0 0.00 62.4 16.9 99.8 1.2
2017 09 25 6:00 Wet 326.0 0.0 0.00 62.1 16.7 99.8 1.8
2017 09 25 7:00 Wet 315.6 0.0 0.00 62.5 17.0 99.7 1.9
2017 09 25 8:00 263.0 0.0 0.00 68.4 20.2 84.5 4.4
2017 09 25 9:00 262.5 0.0 0.00 75.3 24.1 69.47 5.1
2017 09 25 10:00 261.4 0.0 0.00 79.6 26.5 57.12 7.6
2017 09 25 11:00 260.0 0.0 0.00 82.1 27.8 52.32 7.4
2017 09 25 12:00 259.4 0.0 0.00 82.8 28.2 49.08 7.1
2017 09 25 13:00 258.7 0.0 0.00 84.5 29.2 44.1 7.7
2017 09 25 14:00 258.4 0.0 0.00 84.3 29.1 44.18 6.1
2017 09 25 15:00 258.3 0.0 0.00 83.6 28.6 46.67 5.5
2017 09 25 16:00 257.4 0.0 0.00 85.4 29.7 42.25 6.7
2017 09 25 17:00 258.3 0.0 0.00 83.2 28.4 44.62 4.7
2017 09 25 18:00 259.2 0.0 0.00 80.5 26.9 50.63 2.8
2017 09 25 19:00 260.9 0.0 0.00 77.0 25.0 55.55 2.8
2017 09 25 20:00 262.8 0.0 0.00 70.2 21.2 72.32 1.9
2017 09 25 21:00 263.7 0.0 0.00 68.4 20.2 79.52 1.2
2017 09 25 22:00 264.4 0.0 0.00 67.6 19.8 81.3 0.5
2017 09 25 23:00 264.7 0.0 0.00 66.9 19.4 82.3 1.3
2017 09 25 24:00 264.8 0.0 0.00 66.7 19.3 81.5 0.6
2017 09 26 1:00 264.9 0.0 0.00 66.0 18.9 82.6 1.6
2017 09 26 2:00 263.8 0.0 0.00 69.4 20.8 75.73 3.7
2017 09 26 3:00 263.1 0.0 0.00 70.6 21.5 73.21 4.2
2017 09 26 4:00 263.5 0.0 0.00 69.7 20.9 75.84 4.2
2017 09 26 5:00 263.9 0.0 0.00 68.6 20.3 78.55 3.0
2017 09 26 6:00 265.3 0.0 0.00 66.7 19.3 83.7 0.2
2017 09 26 7:00 264.7 0.0 0.00 66.6 19.2 85.1 0.1
2017 09 26 8:00 262.4 0.0 0.00 70.0 21.1 79.37 3.6
2017 09 26 9:00 262.2 0.0 0.00 72.7 22.6 75.58 4.4
2017 09 26 10:00 262.0 0.0 0.00 75.4 24.1 70.61 5.1
2017 09 26 11:00 261.2 0.0 0.00 77.3 25.2 65.54 5.4
2017 09 26 12:00 260.3 0.0 0.00 79.0 26.1 61.46 4.2
2017 09 26 13:00 259.7 0.0 0.00 80.5 26.9 57.81 3.0
2017 09 26 14:00 259.3 0.0 0.00 81.6 27.5 56.25 5.0
2017 09 26 15:00 260.0 0.0 0.00 79.4 26.3 61.35 9.6
2017 09 26 16:00 261.0 0.0 0.00 76.8 24.9 66.65 8.6
2017 09 26 17:00 261.6 0.0 0.00 74.2 23.5 70.76 8.7
2017 09 26 18:00 262.2 0.0 0.00 72.6 22.6 74.16 5.7
2017 09 26 19:00 262.9 0.0 0.00 70.9 21.6 78.82 4.7
2017 09 26 20:00 263.5 0.0 0.00 69.6 20.9 83.7 4.6
2017 09 26 21:00 264.2 0.0 0.00 68.2 20.1 88.3 3.6
2017 09 26 22:00 264.4 0.0 0.00 67.5 19.7 94.5 3.9
2017 09 26 23:00 264.7 0.0 0.00 67.2 19.6 96.2 6.3
2017 09 26 24:00 265.0 0.0 0.00 66.8 19.3 94.1 6.1
2017 09 27 1:00 264.5 0.0 0.00 66.3 19.1 88.1 5.2
2017 09 27 2:00 Wet 332.0 0.3 7.62 65.0 18.3 93.2 5.7
2017 09 27 3:00 Wet 412.5 0.4 10.41 63.0 17.2 99.9 7.2
2017 09 27 4:00 Wet 405.5 0.4 9.65 62.2 16.8 99.9 4.1
2017 09 27 5:00 Wet 383.0 0.1 3.05 61.9 16.6 99.9 4.2
2017 09 27 6:00 Wet 365.1 0.0 0.76 61.7 16.5 99.8 4.7
2017 09 27 7:00 Wet 319.2 0.0 0.00 61.7 16.5 99.9 4.9
2017 09 27 8:00 Wet 364.7 0.0 1.02 61.6 16.5 99.9 4.5
2017 09 27 9:00 Wet 352.8 0.0 0.76 61.6 16.4 99.9 4.7
2017 09 27 10:00 Wet 372.8 0.1 1.78 61.6 16.4 99.9 5.5
2017 09 27 11:00 Wet 318.9 0.0 0.25 61.7 16.5 99.9 5.4
2017 09 27 12:00 Wet 321.1 0.0 0.00 61.1 16.2 99.9 7.1
2017 09 27 13:00 272.6 0.0 0.00 61.3 16.3 99.8 4.6
2017 09 27 14:00 265.4 0.0 0.00 62.3 16.9 95.6 5.4
2017 09 27 15:00 265.3 0.0 0.00 62.1 16.7 88.6 6.9
2017 09 27 16:00 265.1 0.0 0.00 62.3 16.8 85.5 7.4
2017 09 27 17:00 264.5 0.0 0.00 62.5 17.0 82.7 6.5
2017 09 27 18:00 264.6 0.0 0.00 62.0 16.7 82.4 3.8
2017 09 27 19:00 265.2 0.0 0.00 61.0 16.1 84.8 3.8
2017 09 27 20:00 265.3 0.0 0.00 60.2 15.7 85.1 3.8
2017 09 27 21:00 265.3 0.0 0.00 59.6 15.3 86.5 3.6
2017 09 27 22:00 265.3 0.0 0.00 59.1 15.0 83 5.3
2017 09 27 23:00 265.3 0.0 0.00 57.5 14.2 80.8 4.9
2017 09 27 24:00 265.3 0.0 0.00 56.4 13.6 79.36 3.4
2017 09 28 1:00 265.3 0.0 0.00 56.0 13.3 79.11 1.9
2017 09 28 2:00 265.2 0.0 0.00 56.0 13.3 78.7 2.1
2017 09 28 3:00 265.3 0.0 0.00 55.8 13.2 78.43 2.3
2017 09 28 4:00 265.0 0.0 0.00 55.5 13.0 78.34 3.3
2017 09 28 5:00 265.0 0.0 0.00 55.1 12.9 79.12 3.3
2017 09 28 6:00 265.3 0.0 0.00 54.4 12.5 80.8 3.7
2017 09 28 7:00 265.0 0.0 0.00 54.6 12.6 80.2 3.6
2017 09 28 8:00 264.1 0.0 0.00 56.3 13.5 74.34 4.3
2017 09 28 9:00 263.2 0.0 0.00 58.9 15.0 64.89 6.7
2017 09 28 10:00 262.4 0.0 0.00 62.7 17.1 56.06 8.8
2017 09 28 11:00 261.3 0.0 0.00 65.6 18.7 49.77 7.4
2017 09 28 12:00 260.6 0.0 0.00 68.2 20.1 46.19 7.3
2017 09 28 13:00 260.0 0.0 0.00 70.1 21.1 43.89 6.3
2017 09 28 14:00 259.3 0.0 0.00 71.1 21.7 42.51 6.5
2017 09 28 15:00 258.8 0.0 0.00 71.8 22.1 41.21 7.0
2017 09 28 16:00 258.9 0.0 0.00 72.0 22.2 41.5 5.7
2017 09 28 17:00 259.9 0.0 0.00 70.4 21.3 44.98 5.0
2017 09 28 18:00 261.2 0.0 0.00 67.1 19.5 52.86 2.1
2017 09 28 19:00 261.8 0.0 0.00 64.8 18.2 59.07 1.4
2017 09 28 20:00 262.3 0.0 0.00 62.6 17.0 63.98 1.1
2017 09 28 21:00 262.5 0.0 0.00 61.1 16.1 67.97 1.4
2017 09 28 22:00 263.3 0.0 0.00 60.1 15.6 71.4 0.3
2017 09 28 23:00 264.9 0.0 0.00 58.9 14.9 75.46 0.0
2017 09 28 24:00 269.0 0.0 0.00 56.1 13.4 85.6 0.0
2017 09 29 1:00 283.9 0.0 0.00 54.3 12.4 97.1 0.1
2017 09 29 2:00 Wet 300.2 0.0 0.00 53.2 11.8 99.9 0.6
2017 09 29 3:00 Wet 336.4 0.0 0.00 52.2 11.2 99.9 0.0
2017 09 29 4:00 Wet 368.1 0.0 0.00 51.0 10.5 99.9 0.2
2017 09 29 5:00 Wet 379.5 0.0 0.00 50.5 10.3 99.9 0.2
2017 09 29 6:00 Wet 365.5 0.0 0.00 49.5 9.8 99.9 0.1
2017 09 29 7:00 Wet 340.6 0.0 0.00 50.5 10.3 99.9 0.0
2017 09 29 8:00 274.8 0.0 0.00 56.6 13.7 86.5 0.2
2017 09 29 9:00 263.2 0.0 0.00 62.6 17.0 70.37 1.7
2017 09 29 10:00 261.9 0.0 0.00 68.8 20.4 54.91 2.3
2017 09 29 11:00 260.1 0.0 0.00 71.1 21.7 45.48 5.1
2017 09 29 12:00 259.9 0.0 0.00 72.0 22.2 44.69 6.0
2017 09 29 13:00 259.4 0.0 0.00 72.7 22.6 44.56 5.4
2017 09 29 14:00 258.6 0.0 0.00 74.1 23.4 41.54 6.4
2017 09 29 15:00 258.1 0.0 0.00 75.1 24.0 39.11 6.1
2017 09 29 16:00 257.9 0.0 0.00 74.9 23.8 38.92 4.4
2017 09 29 17:00 258.6 0.0 0.00 74.0 23.3 41.16 4.7
2017 09 29 18:00 259.8 0.0 0.00 71.3 21.9 48.3 1.3
2017 09 29 19:00 261.6 0.0 0.00 67.4 19.6 55.85 0.2
2017 09 29 20:00 263.5 0.0 0.00 63.7 17.6 64.66 0.0
2017 09 29 21:00 268.1 0.0 0.00 58.2 14.6 79.56 0.4
2017 09 29 22:00 278.8 0.0 0.00 55.9 13.3 86.2 0.0
2017 09 29 23:00 Wet 293.5 0.0 0.00 55.1 12.8 88.4 0.0
2017 09 29 24:00 Wet 319.8 0.0 0.00 54.2 12.3 93.1 0.0
2017 09 30 1:00 Wet 346.7 0.0 0.00 53.2 11.8 98 0.0
2017 09 30 2:00 Wet 374.2 0.0 0.00 52.3 11.3 99.9 0.0
2017 09 30 3:00 Wet 384.8 0.0 0.00 50.3 10.2 99.9 0.2
2017 09 30 4:00 Wet 371.4 0.0 0.00 49.7 9.8 99.9 0.9
2017 09 30 5:00 Wet 367.9 0.0 0.00 48.8 9.3 99.9 1.5
2017 09 30 6:00 Wet 347.4 0.0 0.00 49.9 9.9 93.9 1.8
2017 09 30 7:00 Wet 293.3 0.0 0.00 52.3 11.3 82.6 1.0
2017 09 30 8:00 262.8 0.0 0.00 57.7 14.3 73.57 3.3
2017 09 30 9:00 262.2 0.0 0.00 64.5 18.0 55.95 6.7
2017 09 30 10:00 261.1 0.0 0.00 68.6 20.3 47.91 7.4
2017 09 30 11:00 259.6 0.0 0.00 72.2 22.4 44.53 6.9
2017 09 30 12:00 259.0 0.0 0.00 74.8 23.8 40.99 4.9
2017 09 30 13:00 258.7 0.0 0.00 76.5 24.7 38.32 5.6
2017 09 30 14:00 257.9 0.0 0.00 77.1 25.1 36.76 6.2
2017 09 30 15:00 257.2 0.0 0.00 77.4 25.2 34.65 6.4
2017 09 30 16:00 256.8 0.0 0.00 77.2 25.1 34.73 6.1
2017 09 30 17:00 257.2 0.0 0.00 75.9 24.4 37 5.9
2017 09 30 18:00 259.1 0.0 0.00 72.2 22.3 43.32 3.6
2017 09 30 19:00 261.5 0.0 0.00 67.5 19.7 52.89 0.9
2017 09 30 20:00 261.8 0.0 0.00 64.1 17.8 59.72 2.7
2017 09 30 21:00 261.8 0.0 0.00 63.3 17.4 61.4 2.3
2017 09 30 22:00 262.3 0.0 0.00 61.8 16.5 64.92 3.6
2017 09 30 23:00 262.1 0.0 0.00 61.7 16.5 63.7 3.8
2017 09 30 24:00 262.3 0.0 0.00 60.4 15.8 65.41 3.2
2017 10 01 1:00 262.0 0.0 0.00 60.4 15.8 59.14 4.5
2017 10 01 2:00 261.9 0.0 0.00 61.6 16.5 50.29 4.9
2017 10 01 3:00 261.5 0.0 0.00 61.3 16.3 48.23 3.9
2017 10 01 4:00 261.9 0.0 0.00 59.9 15.5 52.72 3.6
2017 10 01 5:00 261.9 0.0 0.00 58.8 14.9 55.34 4.1
2017 10 01 6:00 261.9 0.0 0.00 57.4 14.1 59.24 3.3
2017 10 01 7:00 262.5 0.0 0.00 55.7 13.2 64.9 1.9
2017 10 01 8:00 261.7 0.0 0.00 58.0 14.5 61.99 3.4
2017 10 01 9:00 261.3 0.0 0.00 62.0 16.7 56.31 5.9
2017 10 01 10:00 260.5 0.0 0.00 67.3 19.6 49.12 6.5
2017 10 01 11:00 259.7 0.0 0.00 70.3 21.3 44.68 6.8
2017 10 01 12:00 258.9 0.0 0.00 74.0 23.3 38.98 5.3
2017 10 01 13:00 258.1 0.0 0.00 76.1 24.5 34.35 5.2
2017 10 01 14:00 257.3 0.0 0.00 78.4 25.8 30.36 6.0
2017 10 01 15:00 256.6 0.0 0.00 78.9 26.1 28.15 7.4
2017 10 01 16:00 256.9 0.0 0.00 78.7 25.9 30.25 5.9
2017 10 01 17:00 257.9 0.0 0.00 76.9 24.9 36.2 3.8
2017 10 01 18:00 259.1 0.0 0.00 74.0 23.3 44.35 3.1
2017 10 01 19:00 260.3 0.0 0.00 69.9 21.1 50.08 3.8
2017 10 01 20:00 261.3 0.0 0.00 65.0 18.3 56.54 3.4
2017 10 01 21:00 261.8 0.0 0.00 64.4 18.0 61.31 4.4
2017 10 01 22:00 261.9 0.0 0.00 67.5 19.7 69.74 7.2
2017 10 01 23:00 262.8 0.0 0.00 66.9 19.4 79.34 6.4
2017 10 01 24:00 263.6 0.0 0.00 66.8 19.3 83.8 8.3
2017 10 02 1:00 263.9 0.0 0.00 66.8 19.4 85.3 7.3
2017 10 02 2:00 264.7 0.0 0.00 66.3 19.0 87.8 5.8
2017 10 02 3:00 266.2 0.0 0.00 65.1 18.4 96.7 5.4
2017 10 02 4:00 267.3 0.0 0.00 64.6 18.1 99.9 5.5
2017 10 02 5:00 268.4 0.0 0.00 64.4 18.0 99.9 4.5
2017 10 02 6:00 268.6 0.0 0.00 64.2 17.9 99.9 6.3
2017 10 02 7:00 266.6 0.0 0.00 64.8 18.2 99.6 6.8
2017 10 02 8:00 263.7 0.0 0.00 67.7 19.8 87.5 7.7
2017 10 02 9:00 263.2 0.0 0.00 72.3 22.4 76.65 10.5
2017 10 02 10:00 262.3 0.0 0.00 75.9 24.4 68.97 11.8
2017 10 02 11:00 261.6 0.0 0.00 77.7 25.4 64.2 12.6
2017 10 02 12:00 260.8 0.0 0.00 79.8 26.6 58.96 11.6
2017 10 02 13:00 260.1 0.0 0.00 81.5 27.5 54.55 11.1
2017 10 02 14:00 259.7 0.0 0.00 82.0 27.8 52.5 9.7
2017 10 02 15:00 259.5 0.0 0.00 81.9 27.7 51.87 10.1
2017 10 02 16:00 258.6 0.0 0.00 82.9 28.3 49.8 9.5
2017 10 02 17:00 259.6 0.0 0.00 80.9 27.1 52.92 8.6
2017 10 02 18:00 260.1 0.0 0.00 78.5 25.8 56.12 6.5
2017 10 02 19:00 261.6 0.0 0.00 74.5 23.6 60.88 4.9
2017 10 02 20:00 261.7 0.0 0.00 72.8 22.6 61.41 6.1
2017 10 02 21:00 261.7 0.0 0.00 72.2 22.4 64.63 7.9
2017 10 02 22:00 262.1 0.0 0.00 71.7 22.1 69.32 9.6
2017 10 02 23:00 262.4 0.0 0.00 70.3 21.3 73.61 10.7
2017 10 02 24:00 263.0 0.0 0.00 68.8 20.4 76.65 8.6
2017 10 03 1:00 263.1 0.0 0.00 69.1 20.6 78.05 10.6
2017 10 03 2:00 263.1 0.0 0.00 69.0 20.6 80.3 8.4
2017 10 03 3:00 263.3 0.0 0.00 69.2 20.7 83.2 7.4
2017 10 03 4:00 263.8 0.0 0.00 69.7 20.9 84.3 9.5
2017 10 03 5:00 263.8 0.0 0.00 69.8 21.0 85 9.9
2017 10 03 6:00 264.3 0.0 0.00 69.1 20.6 87.2 5.9
2017 10 03 7:00 264.4 0.0 0.00 69.2 20.6 87.8 5.3
2017 10 03 8:00 264.0 0.0 0.00 70.1 21.1 87.1 7.6
2017 10 03 9:00 263.6 0.0 0.00 71.8 22.1 84.4 9.4
2017 10 03 10:00 263.0 0.0 0.00 73.5 23.1 80.4 10.0
2017 10 03 11:00 262.3 0.0 0.00 76.0 24.4 74.59 10.5
2017 10 03 12:00 262.3 0.0 0.00 76.4 24.6 73.56 8.2
2017 10 03 13:00 262.5 0.0 0.00 76.1 24.5 73.89 6.9
2017 10 03 14:00 264.3 0.0 0.00 73.6 23.1 83.3 7.2
2017 10 03 15:00 265.0 0.0 0.00 73.0 22.8 87.6 7.4
2017 10 03 16:00 Wet 306.1 0.0 0.25 71.9 22.1 96.3 7.2
2017 10 03 17:00 Wet 307.2 0.0 0.51 71.0 21.6 99.8 6.8
2017 10 03 18:00 267.6 0.0 0.00 70.5 21.4 99.9 5.5
2017 10 03 19:00 279.1 0.0 0.51 70.0 21.1 99.9 4.9
2017 10 03 20:00 Wet 328.9 0.1 1.27 69.6 20.9 99.9 3.2
2017 10 03 21:00 Wet 304.8 0.0 0.25 69.2 20.6 99.9 1.5
2017 10 03 22:00 Wet 297.2 0.0 0.00 69.2 20.6 99.9 2.7
2017 10 03 23:00 Wet 287.6 0.0 0.00 69.1 20.6 99.9 3.5
2017 10 03 24:00 274.9 0.0 0.00 68.8 20.5 99.9 5.3
2017 10 04 1:00 274.3 0.0 0.00 68.2 20.1 99.9 3.1
2017 10 04 2:00 Wet 290.0 0.0 0.00 67.3 19.6 99.9 1.1
2017 10 04 3:00 Wet 290.0 0.0 0.00 67.5 19.7 99.9 1.8
2017 10 04 4:00 274.4 0.0 0.00 68.1 20.1 99.9 3.0
2017 10 04 5:00 Wet 290.4 0.0 0.25 68.2 20.1 99.9 5.3
2017 10 04 6:00 Wet 288.2 0.0 0.00 67.9 20.0 99.9 5.1
2017 10 04 7:00 273.7 0.0 0.25 68.0 20.0 99.9 3.9
2017 10 04 8:00 266.9 0.0 0.00 68.6 20.3 99.9 3.0
2017 10 04 9:00 266.4 0.0 0.00 69.2 20.6 99.9 4.8
2017 10 04 10:00 265.8 0.0 0.00 69.6 20.9 97.3 4.6
2017 10 04 11:00 267.8 0.0 0.25 69.6 20.9 97.3 1.6
2017 10 04 12:00 267.8 0.0 0.51 70.1 21.2 99.8 2.8
2017 10 04 13:00 282.7 0.0 0.76 70.6 21.5 94.4 4.7
2017 10 04 14:00 266.6 0.0 0.00 70.4 21.3 94.5 5.3
2017 10 04 15:00 275.6 0.0 0.25 70.1 21.1 99.8 4.8
2017 10 04 16:00 Wet 284.5 0.0 0.00 69.6 20.9 99.9 4.9
2017 10 04 17:00 269.9 0.0 0.25 69.0 20.6 99.9 4.5
2017 10 04 18:00 268.4 0.0 0.25 68.4 20.2 99.9 2.2
2017 10 04 19:00 266.5 0.0 0.00 67.9 19.9 99.9 1.3
2017 10 04 20:00 269.6 0.0 0.00 67.6 19.8 99.9 1.2
2017 10 04 21:00 281.8 0.0 0.00 66.9 19.4 99.9 1.3
2017 10 04 22:00 Wet 284.9 0.0 0.00 66.6 19.2 99.9 2.9
2017 10 04 23:00 Wet 304.5 0.0 0.00 66.0 18.9 99.9 0.4
2017 10 04 24:00 Wet 315.9 0.0 0.00 65.8 18.8 99.9 1.2
2017 10 05 1:00 Wet 311.3 0.0 0.00 65.7 18.7 99.9 3.5
2017 10 05 2:00 276.8 0.0 0.00 66.2 19.0 99.9 2.6
2017 10 05 3:00 268.0 0.0 0.00 66.3 19.0 99.9 1.5
2017 10 05 4:00 268.4 0.0 0.00 66.2 19.0 99.9 0.6
2017 10 05 5:00 268.4 0.0 0.00 66.0 18.9 99.9 1.0
2017 10 05 6:00 268.7 0.0 0.00 65.8 18.8 99.9 0.9
2017 10 05 7:00 267.2 0.0 0.00 66.1 18.9 99.9 1.5
2017 10 05 8:00 266.4 0.0 0.00 66.7 19.3 99.4 0.2
2017 10 05 9:00 266.1 0.0 0.00 68.2 20.1 94.1 2.9
2017 10 05 10:00 263.9 0.0 0.00 71.9 22.2 76.5 5.7
2017 10 05 11:00 262.7 0.0 0.00 74.5 23.6 68.78 9.2
2017 10 05 12:00 262.0 0.0 0.00 75.7 24.3 67.4 7.8
2017 10 05 13:00 261.8 0.0 0.00 76.7 24.8 64.8 7.2
2017 10 05 14:00 261.7 0.0 0.00 77.3 25.2 64.87 6.0
2017 10 05 15:00 262.3 0.0 0.00 75.8 24.4 68.76 4.8
2017 10 05 16:00 262.4 0.0 0.00 75.8 24.3 69.76 2.6
2017 10 05 17:00 263.0 0.0 0.00 74.9 23.8 74.45 0.6
2017 10 05 18:00 264.2 0.0 0.00 73.2 22.9 79.83 0.7
2017 10 05 19:00 266.4 0.0 0.00 70.7 21.5 85.9 0.9
2017 10 05 20:00 266.8 0.0 0.00 69.0 20.6 93.2 0.3
2017 10 05 21:00 267.5 0.0 0.00 68.6 20.3 96.7 0.2
2017 10 05 22:00 268.2 0.0 0.00 67.9 19.9 99.8 0.1
2017 10 05 23:00 269.3 0.0 0.00 67.2 19.5 99.3 0.4
2017 10 05 24:00 Wet 288.6 0.0 0.00 66.3 19.1 99.6 1.0
2017 10 06 1:00 267.5 0.0 0.00 67.6 19.8 84.4 1.5
2017 10 06 2:00 265.2 0.0 0.00 67.8 19.9 79.61 1.7
2017 10 06 3:00 264.7 0.0 0.00 68.1 20.0 76.58 4.4
2017 10 06 4:00 264.5 0.0 0.00 67.9 19.9 76.35 4.2
2017 10 06 5:00 264.5 0.0 0.00 67.4 19.6 77.73 3.3
2017 10 06 6:00 264.5 0.0 0.00 66.8 19.4 78.58 2.4
2017 10 06 7:00 264.5 0.0 0.00 66.7 19.3 78.14 3.2
2017 10 06 8:00 264.1 0.0 0.00 67.9 20.0 75.57 4.7
2017 10 06 9:00 263.4 0.0 0.00 70.3 21.3 70.72 6.9
2017 10 06 10:00 262.9 0.0 0.00 71.9 22.2 67.11 8.8
2017 10 06 11:00 262.2 0.0 0.00 73.6 23.1 65.4 10.0
2017 10 06 12:00 261.7 0.0 0.00 76.2 24.6 61.7 11.1
2017 10 06 13:00 261.6 0.0 0.00 77.8 25.4 59.03 10.3
2017 10 06 14:00 261.0 0.0 0.00 79.3 26.3 56.7 8.0
2017 10 06 15:00 260.2 0.0 0.00 80.4 26.9 52.01 8.9
2017 10 06 16:00 260.7 0.0 0.00 78.9 26.0 52.1 8.1
2017 10 06 17:00 261.6 0.0 0.00 77.3 25.1 55.09 5.9
2017 10 06 18:00 261.6 0.0 0.00 76.1 24.5 55.77 6.6
2017 10 06 19:00 261.7 0.0 0.00 74.1 23.4 61.45 6.8
2017 10 06 20:00 261.7 0.0 0.00 73.5 23.1 60.99 10.4
2017 10 06 21:00 262.1 0.0 0.00 72.3 22.4 61.81 10.9
2017 10 06 22:00 262.4 0.0 0.00 71.3 21.8 63.11 10.7
2017 10 06 23:00 262.4 0.0 0.00 70.8 21.6 64.25 8.7
2017 10 06 24:00 262.4 0.0 0.00 70.1 21.2 66.16 8.6
2017 10 07 1:00 262.4 0.0 0.00 70.1 21.2 66.8 7.7
2017 10 07 2:00 262.6 0.0 0.00 70.8 21.5 66.46 11.1
2017 10 07 3:00 262.7 0.0 0.00 70.1 21.1 68.7 10.9
2017 10 07 4:00 263.3 0.0 0.00 69.4 20.8 70.97 11.7
2017 10 07 5:00 263.1 0.0 0.00 69.5 20.8 71 11.2
2017 10 07 6:00 263.1 0.0 0.00 68.8 20.5 71.96 9.6
2017 10 07 7:00 269.0 0.0 0.00 68.0 20.0 75.7 9.5
2017 10 07 8:00 263.8 0.0 0.00 67.8 19.9 77.78 9.9
2017 10 07 9:00 Wet 294.6 0.1 1.52 66.1 19.0 87.2 12.2
2017 10 07 10:00 283.8 0.0 0.00 63.0 17.2 90.4 10.1
2017 10 07 11:00 262.8 0.0 0.00 67.1 19.5 77.88 10.2
2017 10 07 12:00 261.7 0.0 0.00 70.2 21.2 66.79 10.6
2017 10 07 13:00 261.6 0.0 0.00 72.5 22.5 60.11 10.3
2017 10 07 14:00 260.9 0.0 0.00 73.6 23.1 55.62 11.0
2017 10 07 15:00 260.2 0.0 0.00 73.8 23.2 53.21 10.1
2017 10 07 16:00 259.6 0.0 0.00 73.9 23.3 50.62 8.9
2017 10 07 17:00 259.1 0.0 0.00 73.1 22.9 48.1 7.1
2017 10 07 18:00 260.6 0.0 0.00 69.8 21.0 54.37 3.3
2017 10 07 19:00 264.4 0.0 0.00 63.8 17.6 67.35 2.3
2017 10 07 20:00 266.0 0.0 0.00 58.9 15.0 79.84 1.3
2017 10 07 21:00 279.2 0.0 0.00 57.1 13.9 85.7 0.3
2017 10 07 22:00 Wet 315.5 0.0 0.00 55.3 12.9 95.1 0.6
2017 10 07 23:00 Wet 359.0 0.0 0.00 53.0 11.7 99.9 1.3
2017 10 07 24:00 Wet 374.9 0.0 0.00 51.9 11.0 99.9 1.3
2017 10 08 1:00 Wet 373.6 0.0 0.00 50.4 10.2 99.9 1.4
2017 10 08 2:00 Wet 372.9 0.0 0.00 49.5 9.8 99.9 0.9
2017 10 08 3:00 Wet 371.7 0.0 0.00 48.5 9.2 99.9 2.2
2017 10 08 4:00 Wet 367.7 0.0 0.00 48.3 9.1 99.9 0.7
2017 10 08 5:00 Wet 368.0 0.0 0.00 47.5 8.6 99.9 0.2
2017 10 08 6:00 Wet 371.6 0.0 0.00 47.2 8.4 99.9 1.1
2017 10 08 7:00 Wet 351.2 0.0 0.00 48.0 8.9 99.9 0.1
2017 10 08 8:00 272.7 0.0 0.00 53.5 12.0 93.2 1.1
2017 10 08 9:00 263.8 0.0 0.00 62.7 17.1 77.17 2.2
2017 10 08 10:00 262.8 0.0 0.00 69.6 20.9 66.69 4.6
2017 10 08 11:00 260.7 0.0 0.00 73.9 23.3 54.24 3.6
2017 10 08 12:00 259.6 0.0 0.00 76.8 24.9 44.44 5.8
2017 10 08 13:00 259.4 0.0 0.00 77.8 25.5 42.53 5.0
2017 10 08 14:00 258.6 0.0 0.00 79.2 26.2 38.9 5.1
2017 10 08 15:00 257.6 0.0 0.00 80.0 26.7 37.09 3.5
2017 10 08 16:00 256.7 0.0 0.00 80.2 26.8 35.53 3.2
2017 10 08 17:00 256.9 0.0 0.00 78.8 26.0 38.37 1.9
2017 10 08 18:00 259.0 0.0 0.00 75.2 24.0 43.05 2.3
2017 10 08 19:00 262.7 0.0 0.00 67.3 19.6 58.56 0.5
2017 10 08 20:00 267.1 0.0 0.00 61.5 16.4 75.1 0.8
2017 10 08 21:00 271.5 0.0 0.00 58.8 14.9 83.3 2.0
2017 10 08 22:00 271.0 0.0 0.00 58.6 14.8 82.9 0.5
2017 10 08 23:00 Wet 301.5 0.0 0.00 56.3 13.5 92.3 0.0
2017 10 08 24:00 Wet 347.1 0.0 0.00 54.6 12.5 93.7 0.4
2017 10 09 1:00 Wet 365.1 0.0 0.00 53.9 12.2 95.4 0.8
2017 10 09 2:00 Wet 393.5 0.0 0.00 52.4 11.4 99.9 0.2
2017 10 09 3:00 Wet 394.3 0.0 0.00 51.2 10.7 99.9 0.8
2017 10 09 4:00 Wet 378.8 0.0 0.00 51.7 10.9 99.9 1.7
2017 10 09 5:00 Wet 371.1 0.0 0.00 51.6 10.9 99.9 2.7
2017 10 09 6:00 Wet 374.2 0.0 0.00 51.3 10.7 99.9 2.6
2017 10 09 7:00 Wet 354.5 0.0 0.00 51.3 10.7 99.9 2.7
2017 10 09 8:00 278.0 0.0 0.00 58.3 14.6 89.1 4.2
2017 10 09 9:00 263.7 0.0 0.00 65.9 18.8 76.9 4.3
2017 10 09 10:00 262.0 0.0 0.00 74.8 23.8 58.05 5.4
2017 10 09 11:00 259.7 0.0 0.00 80.3 26.9 41.95 8.7
2017 10 09 12:00 258.9 0.0 0.00 81.9 27.7 37.95 9.3
2017 10 09 13:00 258.6 0.0 0.00 82.6 28.1 39.01 7.3
2017 10 09 14:00 258.0 0.0 0.00 83.6 28.6 39.42 7.5
2017 10 09 15:00 257.6 0.0 0.00 83.7 28.7 39.62 5.5
2017 10 09 16:00 257.4 0.0 0.00 83.6 28.7 39.95 3.8
2017 10 09 17:00 257.3 0.0 0.00 82.9 28.3 41.75 3.4
2017 10 09 18:00 259.7 0.0 0.00 78.2 25.7 51.57 2.3
2017 10 09 19:00 261.6 0.0 0.00 72.9 22.7 63.77 3.3
2017 10 09 20:00 261.7 0.0 0.00 73.0 22.8 65.43 5.3
2017 10 09 21:00 261.9 0.0 0.00 71.9 22.1 68.81 3.4
2017 10 09 22:00 265.4 0.0 0.00 70.6 21.5 72.33 4.6
2017 10 09 23:00 Wet 334.8 0.2 5.33 66.3 19.1 95.6 7.6
2017 10 09 24:00 Wet 305.2 0.0 0.00 65.2 18.4 99.9 3.7
2017 10 10 1:00 Wet 304.9 0.0 0.00 64.8 18.2 99.9 3.4
2017 10 10 2:00 Wet 323.6 0.0 0.00 63.9 17.7 99.9 2.0
2017 10 10 3:00 Wet 316.6 0.0 0.00 63.6 17.5 99.9 2.6
2017 10 10 4:00 Wet 300.5 0.0 0.00 62.9 17.2 99.9 3.7
2017 10 10 5:00 Wet 324.5 0.1 1.78 62.9 17.2 99.9 2.1
2017 10 10 6:00 Wet 316.0 0.0 0.00 62.8 17.1 99.9 3.0
2017 10 10 7:00 Wet 314.0 0.0 0.25 61.9 16.6 99.9 5.8
2017 10 10 8:00 Wet 330.5 0.0 0.00 56.9 13.8 99.9 10.5
2017 10 10 9:00 Wet 318.0 0.0 0.00 50.6 10.3 99.9 8.9
2017 10 10 10:00 Wet 317.1 0.0 0.00 49.0 9.4 99.9 6.9
2017 10 10 11:00 278.4 0.0 0.00 49.3 9.6 93.5 6.6
2017 10 10 12:00 265.3 0.0 0.00 49.8 9.9 84.7 9.1
2017 10 10 13:00 264.4 0.0 0.00 50.2 10.1 78.75 10.0
2017 10 10 14:00 264.3 0.0 0.00 50.5 10.3 78.61 10.6
2017 10 10 15:00 264.7 0.0 0.00 49.3 9.6 82.1 9.5
2017 10 10 16:00 264.7 0.0 0.00 48.9 9.4 82.1 8.9
2017 10 10 17:00 264.8 0.0 0.00 48.1 9.0 84.5 9.5
2017 10 10 18:00 265.4 0.0 0.00 47.4 8.5 85.8 8.6
2017 10 10 19:00 265.6 0.0 0.00 46.6 8.1 91.4 7.0
2017 10 10 20:00 266.8 0.0 0.00 45.9 7.7 99.1 7.6
2017 10 10 21:00 268.0 0.0 0.00 45.6 7.6 93.8 7.0
2017 10 10 22:00 Wet 284.3 0.0 0.00 45.1 7.3 99.9 6.3
2017 10 10 23:00 282.6 0.0 0.00 44.9 7.1 99.9 5.4
2017 10 10 24:00 267.8 0.0 0.00 45.0 7.2 99.9 5.7
2017 10 11 1:00 266.3 0.0 0.00 44.8 7.1 99.4 6.3
2017 10 11 2:00 267.2 0.0 0.00 44.9 7.2 95.7 5.1
2017 10 11 3:00 Wet 290.4 0.0 0.00 44.4 6.9 99.9 5.2
2017 10 11 4:00 Wet 295.4 0.0 0.00 44.5 7.0 99.9 5.5
2017 10 11 5:00 Wet 291.4 0.0 0.00 44.4 6.9 99.9 3.5
2017 10 11 6:00 281.9 0.0 0.00 44.7 7.1 99.9 4.8
2017 10 11 7:00 Wet 286.0 0.0 0.00 44.7 7.1 99.9 5.9
2017 10 11 8:00 Wet 293.3 0.0 0.00 44.6 7.0 99.9 5.5
2017 10 11 9:00 Wet 289.6 0.0 0.00 45.6 7.6 99.6 5.4
2017 10 11 10:00 267.9 0.0 0.00 47.6 8.7 89.4 4.4
2017 10 11 11:00 264.8 0.0 0.00 49.1 9.5 84.5 4.7
2017 10 11 12:00 264.2 0.0 0.00 50.6 10.3 81.7 2.9
2017 10 11 13:00 263.9 0.0 0.00 52.0 11.1 79.55 3.7
2017 10 11 14:00 263.5 0.0 0.00 53.2 11.8 77.64 3.1
2017 10 11 15:00 263.0 0.0 0.00 54.7 12.6 75.11 2.5
2017 10 11 16:00 261.4 0.0 0.00 55.9 13.3 73.02 2.2
2017 10 11 17:00 261.5 0.0 0.00 55.1 12.9 75.52 3.4
2017 10 11 18:00 264.2 0.0 0.00 52.2 11.2 82.8 3.4
2017 10 11 19:00 Wet 284.9 0.0 0.00 48.8 9.3 97.1 2.9
2017 10 11 20:00 Wet 335.4 0.0 0.00 47.1 8.4 99.9 2.2
2017 10 11 21:00 Wet 392.0 0.0 0.00 45.9 7.7 99.9 1.0
2017 10 11 22:00 Wet 381.2 0.0 0.00 44.4 6.9 99.9 0.6
2017 10 11 23:00 Wet 380.6 0.0 0.00 43.3 6.3 99.9 0.0
2017 10 11 24:00 Wet 375.0 0.0 0.00 42.8 6.0 99.9 1.9
2017 10 12 1:00 Wet 363.7 0.0 0.00 45.5 7.5 99.9 3.9
2017 10 12 2:00 Wet 355.5 0.0 0.00 45.4 7.4 99.9 3.6
2017 10 12 3:00 Wet 353.1 0.0 0.00 44.1 6.7 99.9 1.1
2017 10 12 4:00 Wet 359.8 0.0 0.00 43.0 6.1 99.9 0.1
2017 10 12 5:00 Wet 364.7 0.0 0.00 42.1 5.6 99.9 0.0
2017 10 12 6:00 Wet 368.5 0.0 0.00 41.7 5.4 99.9 1.5
2017 10 12 7:00 Wet 357.1 0.0 0.00 42.5 5.8 99.9 2.4
2017 10 12 8:00 Wet 322.9 0.0 0.00 45.9 7.7 99.9 5.5
2017 10 12 9:00 283.0 0.0 0.00 49.2 9.6 99.9 5.6
2017 10 12 10:00 264.7 0.0 0.00 53.6 12.0 98.2 6.4
2017 10 12 11:00 263.2 0.0 0.00 60.7 15.9 77.11 6.9
2017 10 12 12:00 262.0 0.0 0.00 65.9 18.8 63.59 6.7
2017 10 12 13:00 261.2 0.0 0.00 70.4 21.3 53.86 5.0
2017 10 12 14:00 260.0 0.0 0.00 73.3 22.9 48.55 5.8
2017 10 12 15:00 259.2 0.0 0.00 75.1 23.9 47.5 6.0
2017 10 12 16:00 258.9 0.0 0.00 75.6 24.2 46.86 6.1
2017 10 12 17:00 259.1 0.0 0.00 74.4 23.6 50.9 6.2
2017 10 12 18:00 261.0 0.0 0.00 70.0 21.1 59.66 4.1
2017 10 12 19:00 262.9 0.0 0.00 65.2 18.5 69.3 4.0
2017 10 12 20:00 263.2 0.0 0.00 63.5 17.5 72.38 3.5
2017 10 12 21:00 263.8 0.0 0.00 61.6 16.4 76.09 3.2
2017 10 12 22:00 263.9 0.0 0.00 60.8 16.0 78.12 4.2
2017 10 12 23:00 263.6 0.0 0.00 62.6 17.0 73.37 6.0
2017 10 12 24:00 263.2 0.0 0.00 63.3 17.4 68.82 4.1
2017 10 13 1:00 263.3 0.0 0.00 62.1 16.7 70.29 3.7
2017 10 13 2:00 263.7 0.0 0.00 60.7 16.0 73.04 4.1
2017 10 13 3:00 263.9 0.0 0.00 59.6 15.3 75.53 4.0
2017 10 13 4:00 263.9 0.0 0.00 59.9 15.5 75.28 4.8
2017 10 13 5:00 263.9 0.0 0.00 59.8 15.4 75.95 4.6
2017 10 13 6:00 263.9 0.0 0.00 59.4 15.2 77.6 4.4
2017 10 13 7:00 263.8 0.0 0.00 59.3 15.2 78.59 4.5
2017 10 13 8:00 262.5 0.0 0.00 64.2 17.9 69.72 5.9
2017 10 13 9:00 261.9 0.0 0.00 70.7 21.5 60.55 10.0
2017 10 13 10:00 261.7 0.0 0.00 75.5 24.2 59.87 12.7
2017 10 13 11:00 260.7 0.0 0.00 78.3 25.8 59.01 13.2
2017 10 13 12:00 260.2 0.0 0.00 80.7 27.0 57.17 12.2
2017 10 13 13:00 260.2 0.0 0.00 82.8 28.2 54.57 11.1
2017 10 13 14:00 259.6 0.0 0.00 83.9 28.8 52.83 9.9
2017 10 13 15:00 259.2 0.0 0.00 83.7 28.7 52.08 10.5
2017 10 13 16:00 258.8 0.0 0.00 83.2 28.4 52.79 9.7
2017 10 13 17:00 259.3 0.0 0.00 81.5 27.5 54.59 9.4
2017 10 13 18:00 260.9 0.0 0.00 77.9 25.5 61.51 6.4
2017 10 13 19:00 261.9 0.0 0.00 74.6 23.7 68.25 6.4
2017 10 13 20:00 262.3 0.0 0.00 73.3 23.0 71.67 6.5
2017 10 13 21:00 262.7 0.0 0.00 72.1 22.3 75.03 5.3
2017 10 13 22:00 263.1 0.0 0.00 70.8 21.6 77.92 4.5
2017 10 13 23:00 263.2 0.0 0.00 70.3 21.3 77.39 5.4
2017 10 13 24:00 263.6 0.0 0.00 68.9 20.5 79.92 5.4
2017 10 14 1:00 264.0 0.0 0.00 67.7 19.8 81.9 3.6
2017 10 14 2:00 263.8 0.0 0.00 68.6 20.4 80.4 4.3
2017 10 14 3:00 263.9 0.0 0.00 68.3 20.2 82.2 4.7
2017 10 14 4:00 264.5 0.0 0.00 67.7 19.8 83.9 5.2
2017 10 14 5:00 265.0 0.0 0.00 66.3 19.1 86.7 4.3
2017 10 14 6:00 264.7 0.0 0.00 67.2 19.5 84.7 5.5
2017 10 14 7:00 264.5 0.0 0.00 67.0 19.4 85.2 5.2
2017 10 14 8:00 263.0 0.0 0.00 69.9 21.1 80.2 6.1
2017 10 14 9:00 262.8 0.0 0.00 75.0 23.9 72.26 11.1
2017 10 14 10:00 262.0 0.0 0.00 77.6 25.4 68 14.6
2017 10 14 11:00 261.4 0.0 0.00 79.8 26.6 64.48 14.5
2017 10 14 12:00 261.1 0.0 0.00 80.9 27.1 62.06 15.2
2017 10 14 13:00 260.6 0.0 0.00 82.3 28.0 57.87 15.2
2017 10 14 14:00 260.2 0.0 0.00 83.5 28.6 54.29 14.7
2017 10 14 15:00 259.6 0.0 0.00 84.2 29.0 51.19 15.0
2017 10 14 16:00 259.2 0.0 0.00 83.8 28.8 50.93 12.8
2017 10 14 17:00 259.5 0.0 0.00 82.7 28.2 50.83 13.3
2017 10 14 18:00 260.6 0.0 0.00 79.7 26.5 56.5 9.4
2017 10 14 19:00 261.6 0.0 0.00 77.2 25.1 60.14 8.0
2017 10 14 20:00 261.7 0.0 0.00 75.3 24.1 65.51 5.6
2017 10 14 21:00 262.3 0.0 0.00 73.1 22.8 70.64 4.4
2017 10 14 22:00 262.3 0.0 0.00 73.5 23.1 69.81 5.2
2017 10 14 23:00 262.3 0.0 0.00 74.4 23.6 67.94 5.1
2017 10 14 24:00 Wet 304.0 0.2 4.57 69.1 20.6 85.4 10.4
2017 10 15 1:00 Wet 332.0 0.1 1.78 62.3 16.8 99.9 13.4
2017 10 15 2:00 Wet 369.7 0.4 9.91 57.9 14.4 99.9 11.2
2017 10 15 3:00 Wet 358.1 0.1 3.56 56.0 13.4 99.9 12.3
2017 10 15 4:00 Wet 313.5 0.0 0.25 53.7 12.1 99.9 9.1
2017 10 15 5:00 269.9 0.0 0.00 51.7 11.0 90.5 12.4
2017 10 15 6:00 264.9 0.0 0.00 49.0 9.4 82.7 10.0
2017 10 15 7:00 264.9 0.0 0.00 48.6 9.2 84.6 6.4
2017 10 15 8:00 264.6 0.0 0.00 48.9 9.4 82.7 6.4
2017 10 15 9:00 263.8 0.0 0.00 50.1 10.1 74.96 9.7
2017 10 15 10:00 262.8 0.0 0.00 53.0 11.7 68.53 9.7
2017 10 15 11:00 262.0 0.0 0.00 55.7 13.2 62.91 8.7
2017 10 15 12:00 261.4 0.0 0.00 57.4 14.1 59.39 9.2
2017 10 15 13:00 261.4 0.0 0.00 59.2 15.1 55.47 8.9
2017 10 15 14:00 261.2 0.0 0.00 59.7 15.4 52.97 10.3
2017 10 15 15:00 260.4 0.0 0.00 60.2 15.7 49.34 10.0
2017 10 15 16:00 259.9 0.0 0.00 60.3 15.7 47.46 9.7
2017 10 15 17:00 259.9 0.0 0.00 59.3 15.1 48.33 7.6
2017 10 15 18:00 261.2 0.0 0.00 56.0 13.3 52.51 4.3
2017 10 15 19:00 262.0 0.0 0.00 52.6 11.4 57.25 3.4
2017 10 15 20:00 262.6 0.0 0.00 50.2 10.1 62.85 3.5
2017 10 15 21:00 263.2 0.0 0.00 48.8 9.3 68.05 3.3
2017 10 15 22:00 267.0 0.0 0.00 47.0 8.3 72.85 0.8
2017 10 15 23:00 Wet 291.5 0.0 0.00 42.2 5.6 86.8 2.2
2017 10 15 24:00 Wet 318.8 0.0 0.00 40.6 4.8 95.2 2.1
2017 10 16 1:00 Wet 356.6 0.0 0.00 39.6 4.2 99.9 0.4
2017 10 16 2:00 Wet 394.0 0.0 0.00 39.2 4.0 99.9 0.0
2017 10 16 3:00 Wet 386.9 0.0 0.00 37.4 3.0 99.9 0.0
2017 10 16 4:00 Wet 377.0 0.0 0.00 35.9 2.2 99.9 1.3
2017 10 16 5:00 Wet 368.7 0.0 0.00 36.0 2.2 99.9 0.0
2017 10 16 6:00 Wet 365.8 0.0 0.00 35.7 2.1 99.9 0.0
2017 10 16 7:00 Wet 359.8 0.0 0.00 34.9 1.6 99.9 0.0
2017 10 16 8:00 Wet 289.4 0.0 0.00 39.6 4.2 97.8 0.1
2017 10 16 9:00 273.6 0.0 0.00 49.3 9.6 79 0.7
2017 10 16 10:00 261.1 0.0 0.00 55.8 13.2 47.36 2.9
2017 10 16 11:00 259.8 0.0 0.00 58.8 14.9 40.82 3.9
2017 10 16 12:00 259.1 0.0 0.00 61.3 16.3 37.25 3.0
2017 10 16 13:00 259.1 0.0 0.00 63.2 17.3 34.73 3.1
2017 10 16 14:00 258.6 0.0 0.00 64.3 17.9 33.11 3.0
2017 10 16 15:00 257.8 0.0 0.00 65.2 18.4 31.45 2.4
2017 10 16 16:00 256.8 0.0 0.00 66.1 19.0 28.95 1.4
2017 10 16 17:00 256.9 0.0 0.00 66.1 18.9 29.47 0.6
2017 10 16 18:00 260.4 0.0 0.00 62.0 16.7 36.14 0.0
2017 10 16 19:00 263.8 0.0 0.00 53.2 11.8 53.74 0.0
2017 10 16 20:00 272.2 0.0 0.00 47.8 8.8 70.92 0.4
2017 10 16 21:00 Wet 287.0 0.0 0.00 44.4 6.9 79.67 0.1
2017 10 16 22:00 Wet 323.5 0.0 0.00 42.9 6.0 84.7 0.0
2017 10 16 23:00 Wet 366.5 0.0 0.00 40.8 4.9 94.7 0.4
2017 10 16 24:00 Wet 395.7 0.0 0.00 39.2 4.0 99.9 1.4
2017 10 17 1:00 Wet 394.7 0.0 0.00 38.7 3.7 99.9 0.1
2017 10 17 2:00 Wet 376.7 0.0 0.00 38.4 3.6 99.9 0.0
2017 10 17 3:00 Wet 366.6 0.0 0.00 37.9 3.3 99.9 0.7
2017 10 17 4:00 Wet 352.2 0.0 0.00 37.5 3.0 99.9 1.4
2017 10 17 5:00 Wet 328.2 0.0 0.00 40.2 4.6 91.6 1.3
2017 10 17 6:00 Wet 307.6 0.0 0.00 41.5 5.3 90 2.0
2017 10 17 7:00 282.2 0.0 0.00 47.1 8.4 74.89 3.3
2017 10 17 8:00 270.5 0.0 0.00 47.5 8.6 78.31 0.1
2017 10 17 9:00 263.2 0.0 0.00 53.8 12.1 64.86 4.4
2017 10 17 10:00 262.0 0.0 0.00 58.8 14.9 52.76 7.3
2017 10 17 11:00 260.1 0.0 0.00 63.3 17.4 42.13 9.0
2017 10 17 12:00 259.7 0.0 0.00 65.0 18.3 41.13 8.7
2017 10 17 13:00 259.6 0.0 0.00 66.5 19.1 39.22 8.0
2017 10 17 14:00 259.1 0.0 0.00 68.0 20.0 38.11 7.8
2017 10 17 15:00 258.3 0.0 0.00 68.8 20.4 35.93 7.0
2017 10 17 16:00 257.9 0.0 0.00 68.8 20.5 36.17 6.1
2017 10 17 17:00 258.1 0.0 0.00 67.3 19.6 38.84 4.3
2017 10 17 18:00 260.5 0.0 0.00 62.7 17.0 46.75 3.1
2017 10 17 19:00 261.8 0.0 0.00 58.7 14.9 52.92 4.2
2017 10 17 20:00 265.0 0.0 0.00 53.1 11.7 65.1 1.5
2017 10 17 21:00 264.7 0.0 0.00 50.9 10.5 69.14 3.1
2017 10 17 22:00 264.4 0.0 0.00 49.7 9.8 71.95 3.0
2017 10 17 23:00 270.5 0.0 0.00 47.6 8.7 77.81 0.8
2017 10 17 24:00 Wet 301.1 0.0 0.00 44.8 7.1 86.3 0.0
2017 10 18 1:00 Wet 346.8 0.0 0.00 43.9 6.6 88.3 0.4
2017 10 18 2:00 Wet 359.9 0.0 0.00 44.2 6.8 82.9 0.2
2017 10 18 3:00 Wet 301.6 0.0 0.00 46.0 7.8 73.42 2.9
2017 10 18 4:00 266.1 0.0 0.00 47.1 8.4 71.61 3.5
2017 10 18 5:00 265.1 0.0 0.00 45.2 7.3 76.99 4.5
2017 10 18 6:00 267.4 0.0 0.00 43.6 6.4 79.86 1.9
2017 10 18 7:00 271.1 0.0 0.00 43.5 6.4 81.6 1.2
2017 10 18 8:00 263.1 0.0 0.00 48.1 9.0 76.56 2.7
2017 10 18 9:00 262.5 0.0 0.00 57.6 14.2 56.36 6.1
2017 10 18 10:00 260.9 0.0 0.00 62.7 17.1 47.68 7.2
2017 10 18 11:00 259.6 0.0 0.00 66.8 19.3 40.98 9.9
2017 10 18 12:00 259.0 0.0 0.00 69.7 20.9 39.01 8.8
2017 10 18 13:00 259.0 0.0 0.00 72.4 22.4 37.12 9.1
2017 10 18 14:00 258.5 0.0 0.00 74.1 23.4 34.55 9.9
2017 10 18 15:00 258.5 0.0 0.00 73.8 23.2 34.58 7.4
2017 10 18 16:00 258.3 0.0 0.00 73.9 23.3 34.57 6.8
2017 10 18 17:00 259.0 0.0 0.00 70.0 21.1 40.01 4.4
2017 10 18 18:00 260.3 0.0 0.00 65.8 18.8 46.63 4.4
2017 10 18 19:00 261.7 0.0 0.00 61.2 16.2 53.72 2.4
2017 10 18 20:00 262.4 0.0 0.00 59.3 15.2 54.05 1.0
2017 10 18 21:00 263.7 0.0 0.00 55.4 13.0 65.1 0.4
2017 10 18 22:00 263.4 0.0 0.00 54.7 12.6 64.91 2.9
2017 10 18 23:00 263.6 0.0 0.00 55.4 13.0 65.53 2.4
2017 10 18 24:00 264.4 0.0 0.00 56.3 13.5 64.58 1.3
2017 10 19 1:00 273.3 0.0 0.00 51.3 10.7 78.27 0.0
2017 10 19 2:00 282.7 0.0 0.00 49.3 9.6 83 1.3
2017 10 19 3:00 283.2 0.0 0.00 48.1 8.9 85.8 2.7
2017 10 19 4:00 Wet 297.9 0.0 0.00 45.4 7.4 95.5 2.4
2017 10 19 5:00 Wet 334.2 0.0 0.00 43.9 6.6 99.9 2.7
2017 10 19 6:00 Wet 362.1 0.0 0.00 44.1 6.7 99.9 1.8
2017 10 19 7:00 Wet 365.9 0.0 0.00 44.3 6.8 99.5 2.3
2017 10 19 8:00 Wet 292.4 0.0 0.00 50.7 10.4 86 1.6
2017 10 19 9:00 262.8 0.0 0.00 63.6 17.6 61.28 6.9
2017 10 19 10:00 261.2 0.0 0.00 68.1 20.1 53.7 8.8
2017 10 19 11:00 260.0 0.0 0.00 70.6 21.4 48.95 8.9
2017 10 19 12:00 259.0 0.0 0.00 73.0 22.8 44.39 7.7
2017 10 19 13:00 258.9 0.0 0.00 75.0 23.9 41.04 6.1
2017 10 19 14:00 258.5 0.0 0.00 76.2 24.5 38.95 5.2
2017 10 19 15:00 258.1 0.0 0.00 76.7 24.8 37.48 6.3
2017 10 19 16:00 258.8 0.0 0.00 74.6 23.7 40.74 5.1
2017 10 19 17:00 259.4 0.0 0.00 71.8 22.1 47.28 1.4
2017 10 19 18:00 260.8 0.0 0.00 68.3 20.2 50.12 2.6
2017 10 19 19:00 261.8 0.0 0.00 63.6 17.6 54.83 2.5
2017 10 19 20:00 263.1 0.0 0.00 59.5 15.3 64.48 0.7
2017 10 19 21:00 267.9 0.0 0.00 55.2 12.9 77.38 1.3
2017 10 19 22:00 273.1 0.0 0.00 53.7 12.1 80.9 1.8
2017 10 19 23:00 281.9 0.0 0.00 53.6 12.0 78.08 1.5
2017 10 19 24:00 Wet 315.2 0.0 0.00 50.6 10.3 84.7 0.1
2017 10 20 1:00 Wet 362.2 0.0 0.00 51.5 10.8 84.8 0.3
2017 10 20 2:00 Wet 393.5 0.0 0.00 51.8 11.0 84.9 1.4
2017 10 20 3:00 Wet 378.9 0.0 0.00 50.1 10.1 90.4 2.4
2017 10 20 4:00 Wet 377.8 0.0 0.00 47.1 8.4 99.9 1.3
2017 10 20 5:00 Wet 370.4 0.0 0.00 47.0 8.3 99.9 0.9
2017 10 20 6:00 Wet 374.0 0.0 0.00 47.8 8.8 99.9 0.4
2017 10 20 7:00 Wet 369.7 0.0 0.00 48.7 9.3 99.9 1.0
2017 10 20 8:00 Wet 345.1 0.0 0.00 49.5 9.8 99.9 1.7
2017 10 20 9:00 Wet 294.4 0.0 0.00 54.1 12.3 92.6 3.5
2017 10 20 10:00 264.8 0.0 0.00 62.8 17.1 71.83 7.3
2017 10 20 11:00 261.8 0.0 0.00 67.0 19.5 61.91 8.4
2017 10 20 12:00 261.4 0.0 0.00 69.2 20.7 59.01 8.2
2017 10 20 13:00 261.0 0.0 0.00 70.1 21.2 55.66 8.5
2017 10 20 14:00 261.4 0.0 0.00 69.3 20.7 55.53 10.1
2017 10 20 15:00 260.7 0.0 0.00 69.9 21.1 53.81 11.1
2017 10 20 16:00 260.0 0.0 0.00 70.6 21.4 54.77 10.5
2017 10 20 17:00 260.9 0.0 0.00 69.2 20.7 59.08 10.8
2017 10 20 18:00 262.1 0.0 0.00 66.5 19.2 68.48 9.9
2017 10 20 19:00 263.0 0.0 0.00 64.5 18.1 74.37 9.4
2017 10 20 20:00 263.2 0.0 0.00 63.8 17.6 76.12 10.8
CST mV in mm F C % mph
Year Month Day Hour Leaf Wetness Total
Precipitation
Avg. Temp Avg. Rel.
Humidity
Wind
Speed

Back to the top of the page